Time,TemperatureF,DewpointF,PressureIn,WindDirection,WindDirectionDegrees,WindSpeedMPH,WindSpeedGustMPH,Humidity,HourlyPrecipIn,Conditions,Clouds,dailyrainin,SoftwareType,DateUTC
2013-04-08 00:00:00,53.6,48.2,29.72,WNW,283,0.0,0.0,82,0.00,CLR,,0.00,WeatherDisplay:10.37,2013-04-08 07:00:00,
2013-04-08 00:02:00,53.8,48.4,29.72,WNW,291,0.0,0.0,82,0.00,CLR,,0.00,WeatherDisplay:10.37,2013-04-08 07:02:00,
2013-04-08 00:03:00,53.8,48.4,29.72,WNW,291,0.0,0.0,82,0.00,CLR,,0.00,WeatherDisplay:10.37,2013-04-08 07:03:00,
2013-04-08 00:06:00,53.8,48.4,29.72,WNW,286,0.0,0.0,82,0.00,CLR,,0.00,WeatherDisplay:10.37,2013-04-08 07:06:00,
2013-04-08 00:07:00,53.8,48.8,29.72,West,281,0.0,0.0,83,0.00,CLR,,0.00,WeatherDisplay:10.37,2013-04-08 07:07:00,
2013-04-08 00:09:00,53.8,48.8,29.72,West,281,0.0,0.0,83,0.00,CLR,,0.00,WeatherDisplay:10.37,2013-04-08 07:09:00,
2013-04-08 00:11:00,53.9,48.9,29.73,WNW,286,0.0,0.0,83,0.00,CLR,,0.00,WeatherDisplay:10.37,2013-04-08 07:11:00,
2013-04-08 00:13:00,53.9,48.9,29.73,WNW,286,0.0,0.0,83,0.00,CLR,,0.00,WeatherDisplay:10.37,2013-04-08 07:13:00,
2013-04-08 00:14:00,53.9,48.9,29.73,WNW,287,0.0,0.0,83,0.00,CLR,,0.00,WeatherDisplay:10.37,2013-04-08 07:14:00,
2013-04-08 00:17:00,53.9,48.9,29.73,WNW,286,0.0,0.0,83,0.00,CLR,,0.00,WeatherDisplay:10.37,2013-04-08 07:17:00,
2013-04-08 00:20:00,53.9,48.9,29.72,WNW,286,0.0,0.0,83,0.00,CLR,,0.00,WeatherDisplay:10.37,2013-04-08 07:20:00,
2013-04-08 00:22:00,53.9,48.9,29.73,SSE,162,0.0,0.0,83,0.00,CLR,,0.00,WeatherDisplay:10.37,2013-04-08 07:22:00,
2013-04-08 00:24:00,54.1,48.7,29.72,SSE,168,0.0,0.0,82,0.00,CLR,,0.00,WeatherDisplay:10.37,2013-04-08 07:24:00,
2013-04-08 00:25:00,54.1,48.7,29.72,SSE,168,0.0,0.0,82,0.00,CLR,,0.00,WeatherDisplay:10.37,2013-04-08 07:25:00,
2013-04-08 00:27:00,54.1,48.7,29.73,SSE,168,0.0,0.0,82,0.00,CLR,,0.00,WeatherDisplay:10.37,2013-04-08 07:27:00,
2013-04-08 00:32:00,54.1,48.7,29.72,SSW,198,0.0,0.0,82,0.00,CLR,,0.00,WeatherDisplay:10.37,2013-04-08 07:32:00,
2013-04-08 00:37:00,54.1,48.7,29.72,South,179,0.0,0.0,82,0.00,CLR,,0.00,WeatherDisplay:10.37,2013-04-08 07:37:00,
2013-04-08 00:38:00,54.1,48.7,29.72,South,179,0.0,0.0,82,0.00,CLR,,0.00,WeatherDisplay:10.37,2013-04-08 07:38:00,
2013-04-08 00:40:00,54.1,48.7,29.71,South,175,0.0,0.0,82,0.00,CLR,,0.00,WeatherDisplay:10.37,2013-04-08 07:40:00,
2013-04-08 00:43:00,54.2,48.8,29.71,SSE,164,0.0,0.0,82,0.00,CLR,,0.00,WeatherDisplay:10.37,2013-04-08 07:43:00,
2013-04-08 00:44:00,54.2,48.8,29.71,SSE,164,0.0,0.0,82,0.00,CLR,,0.00,WeatherDisplay:10.37,2013-04-08 07:44:00,
2013-04-08 00:46:00,54.2,48.8,29.71,South,172,0.0,0.0,82,0.00,CLR,,0.00,WeatherDisplay:10.37,2013-04-08 07:46:00,
2013-04-08 00:48:00,54.2,48.8,29.71,SSE,162,0.0,0.0,82,0.00,CLR,,0.00,WeatherDisplay:10.37,2013-04-08 07:48:00,
2013-04-08 00:50:00,54.2,49.1,29.71,SE,142,0.0,0.0,83,0.00,CLR,,0.00,WeatherDisplay:10.37,2013-04-08 07:50:00,
2013-04-08 00:52:00,54.2,49.1,29.71,South,169,0.0,0.0,83,0.00,CLR,,0.00,WeatherDisplay:10.37,2013-04-08 07:52:00,
2013-04-08 00:54:00,54.2,49.1,29.71,South,179,0.0,0.0,83,0.00,CLR,,0.00,WeatherDisplay:10.37,2013-04-08 07:54:00,
2013-04-08 00:57:00,54.4,49.3,29.71,South,179,0.0,0.0,83,0.00,CLR,,0.00,WeatherDisplay:10.37,2013-04-08 07:57:00,
2013-04-08 00:59:00,54.4,49.3,29.71,South,179,0.0,0.0,83,0.00,CLR,,0.00,WeatherDisplay:10.37,2013-04-08 07:59:00,
2013-04-08 01:02:00,54.4,49.3,29.71,South,179,0.0,0.0,83,0.00,CLR,,0.00,WeatherDisplay:10.37,2013-04-08 08:02:00,
2013-04-08 01:04:00,54.4,49.0,29.71,South,179,0.0,0.0,82,0.00,CLR,,0.00,WeatherDisplay:10.37,2013-04-08 08:04:00,
2013-04-08 01:07:00,54.2,48.8,29.71,SSE,162,0.0,0.0,82,0.00,CLR,,0.00,WeatherDisplay:10.37,2013-04-08 08:07:00,
2013-04-08 01:09:00,54.2,48.5,29.71,SSE,149,0.0,0.0,81,0.00,CLR,,0.00,WeatherDisplay:10.37,2013-04-08 08:09:00,
2013-04-08 01:10:00,54.2,48.5,29.71,SSE,163,0.0,0.0,81,0.00,CLR,,0.00,WeatherDisplay:10.37,2013-04-08 08:10:00,
2013-04-08 01:12:00,54.1,48.4,29.71,ESE,113,0.0,0.0,81,0.00,CLR,,0.00,WeatherDisplay:10.37,2013-04-08 08:12:00,
2013-04-08 01:14:00,54.1,48.4,29.71,ESE,112,0.0,0.0,81,0.00,CLR,,0.00,WeatherDisplay:10.37,2013-04-08 08:14:00,
2013-04-08 01:15:00,54.1,48.4,29.71,ESE,113,0.0,0.0,81,0.00,CLR,,0.00,WeatherDisplay:10.37,2013-04-08 08:15:00,
2013-04-08 01:19:00,54.1,48.4,29.71,ESE,113,0.0,0.0,81,0.00,CLR,,0.00,WeatherDisplay:10.37,2013-04-08 08:19:00,
2013-04-08 01:21:00,54.1,48.4,29.71,ESE,112,0.0,0.0,81,0.00,CLR,,0.00,WeatherDisplay:10.37,2013-04-08 08:21:00,
2013-04-08 01:24:00,54.2,48.5,29.71,ESE,113,0.0,0.0,81,0.00,CLR,,0.00,WeatherDisplay:10.37,2013-04-08 08:24:00,
2013-04-08 01:25:00,54.2,48.5,29.71,ESE,113,0.0,0.0,81,0.00,CLR,,0.00,WeatherDisplay:10.37,2013-04-08 08:25:00,
2013-04-08 01:29:00,54.2,48.5,29.70,ESE,113,0.0,0.0,81,0.00,CLR,,0.00,WeatherDisplay:10.37,2013-04-08 08:29:00,
2013-04-08 01:30:00,54.2,48.5,29.70,ESE,112,0.0,0.0,81,0.00,CLR,,0.00,WeatherDisplay:10.37,2013-04-08 08:30:00,
2013-04-08 01:34:00,54.4,48.4,29.69,East,90,0.0,0.0,80,0.00,CLR,,0.00,WeatherDisplay:10.37,2013-04-08 08:34:00,
2013-04-08 01:35:00,54.4,48.4,29.69,East,91,0.0,0.0,80,0.00,CLR,,0.00,WeatherDisplay:10.37,2013-04-08 08:35:00,
2013-04-08 01:36:00,54.4,48.4,29.69,SE,134,0.0,0.0,80,0.00,CLR,,0.00,WeatherDisplay:10.37,2013-04-08 08:36:00,
2013-04-08 01:40:00,54.4,48.4,29.69,ESE,109,0.0,0.0,80,0.00,CLR,,0.00,WeatherDisplay:10.37,2013-04-08 08:40:00,
2013-04-08 01:41:00,54.4,48.4,29.69,SE,133,0.0,0.0,80,0.00,CLR,,0.00,WeatherDisplay:10.37,2013-04-08 08:41:00,
2013-04-08 01:42:00,54.4,48.4,29.69,SE,133,0.0,0.0,80,0.00,CLR,,0.00,WeatherDisplay:10.37,2013-04-08 08:42:00,
2013-04-08 01:47:00,54.5,48.5,29.69,SE,133,0.0,0.0,80,0.00,CLR,,0.00,WeatherDisplay:10.37,2013-04-08 08:47:00,
2013-04-08 01:48:00,54.5,48.5,29.69,SE,133,0.0,0.0,80,0.00,CLR,,0.00,WeatherDisplay:10.37,2013-04-08 08:48:00,
2013-04-08 01:53:00,54.5,48.5,29.68,SE,136,0.0,0.0,80,0.00,CLR,,0.00,WeatherDisplay:10.37,2013-04-08 08:53:00,
2013-04-08 01:55:00,54.5,48.5,29.68,SE,134,0.0,0.0,80,0.00,CLR,,0.00,WeatherDisplay:10.37,2013-04-08 08:55:00,
2013-04-08 01:56:00,54.5,48.5,29.67,SE,136,0.0,0.0,80,0.00,CLR,,0.00,WeatherDisplay:10.37,2013-04-08 08:56:00,
2013-04-08 01:57:00,54.5,48.5,29.67,SE,136,0.0,0.0,80,0.00,CLR,,0.00,WeatherDisplay:10.37,2013-04-08 08:57:00,
2013-04-08 02:01:00,54.7,48.6,29.67,SSE,151,0.0,0.0,80,0.00,CLR,,0.00,WeatherDisplay:10.37,2013-04-08 09:01:00,
2013-04-08 02:04:00,54.7,48.6,29.67,ESE,115,0.0,0.0,80,0.00,CLR,,0.00,WeatherDisplay:10.37,2013-04-08 09:04:00,
2013-04-08 02:06:00,54.7,48.6,29.66,ESE,120,0.0,0.0,80,0.00,CLR,,0.00,WeatherDisplay:10.37,2013-04-08 09:06:00,
2013-04-08 02:08:00,54.7,48.6,29.66,ESE,120,0.0,0.0,80,0.00,CLR,,0.00,WeatherDisplay:10.37,2013-04-08 09:08:00,
2013-04-08 02:09:00,54.7,48.6,29.66,ESE,120,0.0,0.0,80,0.00,CLR,,0.00,WeatherDisplay:10.37,2013-04-08 09:09:00,
2013-04-08 02:10:00,54.7,48.6,29.66,ESE,120,0.0,0.0,80,0.00,CLR,,0.00,WeatherDisplay:10.37,2013-04-08 09:10:00,
2013-04-08 02:11:00,54.7,48.6,29.66,SSE,168,0.0,0.0,80,0.00,CLR,,0.00,WeatherDisplay:10.37,2013-04-08 09:11:00,
2013-04-08 02:15:00,54.7,48.6,29.66,SSE,160,0.0,0.0,80,0.00,CLR,,0.00,WeatherDisplay:10.37,2013-04-08 09:15:00,
2013-04-08 02:17:00,54.7,48.6,29.66,SSE,150,0.0,0.0,80,0.00,CLR,,0.00,WeatherDisplay:10.37,2013-04-08 09:17:00,
2013-04-08 02:20:00,54.5,48.5,29.66,South,180,0.0,0.0,80,0.00,CLR,,0.00,WeatherDisplay:10.37,2013-04-08 09:20:00,
2013-04-08 02:25:00,54.5,48.8,29.65,SSE,147,0.0,0.0,81,0.00,CLR,,0.00,WeatherDisplay:10.37,2013-04-08 09:25:00,
2013-04-08 02:26:00,54.5,48.8,29.64,SSE,147,0.0,0.0,81,0.00,CLR,,0.00,WeatherDisplay:10.37,2013-04-08 09:26:00,
2013-04-08 02:27:00,54.5,48.8,29.64,SSE,147,0.0,0.0,81,0.00,CLR,,0.00,WeatherDisplay:10.37,2013-04-08 09:27:00,
2013-04-08 02:31:00,54.4,48.7,29.65,West,264,0.0,0.0,81,0.00,CLR,,0.00,WeatherDisplay:10.37,2013-04-08 09:31:00,
2013-04-08 02:32:00,54.4,48.7,29.65,South,186,0.0,0.0,81,0.00,CLR,,0.00,WeatherDisplay:10.37,2013-04-08 09:32:00,
2013-04-08 02:33:00,54.4,48.7,29.65,SSW,211,0.0,0.0,81,0.00,CLR,,0.00,WeatherDisplay:10.37,2013-04-08 09:33:00,
2013-04-08 02:38:00,54.2,48.5,29.64,West,260,0.0,0.0,81,0.00,CLR,,0.00,WeatherDisplay:10.37,2013-04-08 09:38:00,
2013-04-08 02:40:00,54.2,48.5,29.64,WSW,247,0.0,0.0,81,0.00,CLR,,0.00,WeatherDisplay:10.37,2013-04-08 09:40:00,
2013-04-08 02:42:00,54.1,48.4,29.64,West,260,0.0,0.0,81,0.00,CLR,,0.00,WeatherDisplay:10.37,2013-04-08 09:42:00,
2013-04-08 02:43:00,54.1,48.4,29.64,West,260,0.0,0.0,81,0.00,CLR,,0.00,WeatherDisplay:10.37,2013-04-08 09:43:00,
2013-04-08 02:47:00,53.9,48.2,29.64,West,260,0.0,0.0,81,0.00,CLR,,0.00,WeatherDisplay:10.37,2013-04-08 09:47:00,
2013-04-08 02:49:00,53.9,48.5,29.64,West,276,0.0,0.0,82,0.00,CLR,,0.00,WeatherDisplay:10.37,2013-04-08 09:49:00,
2013-04-08 02:50:00,53.9,48.5,29.64,West,276,0.0,0.0,82,0.00,CLR,,0.00,WeatherDisplay:10.37,2013-04-08 09:50:00,
2013-04-08 02:53:00,53.9,48.5,29.64,West,276,0.0,0.0,82,0.00,CLR,,0.00,WeatherDisplay:10.37,2013-04-08 09:53:00,
2013-04-08 02:54:00,53.9,48.5,29.64,West,276,0.0,0.0,82,0.00,CLR,,0.00,WeatherDisplay:10.37,2013-04-08 09:54:00,
2013-04-08 02:56:00,53.9,48.5,29.64,West,276,0.0,0.0,82,0.00,CLR,,0.00,WeatherDisplay:10.37,2013-04-08 09:56:00,
2013-04-08 02:59:00,53.9,48.5,29.64,West,276,0.0,0.0,82,0.00,CLR,,0.00,WeatherDisplay:10.37,2013-04-08 09:59:00,
2013-04-08 03:00:00,53.9,48.5,29.64,West,276,0.0,0.0,82,0.00,CLR,,0.00,WeatherDisplay:10.37,2013-04-08 10:00:00,
2013-04-08 03:01:00,53.9,48.5,29.64,West,276,0.0,0.0,82,0.00,CLR,,0.00,WeatherDisplay:10.37,2013-04-08 10:01:00,
2013-04-08 03:02:00,53.9,48.5,29.64,West,276,0.0,0.0,82,0.00,CLR,,0.00,WeatherDisplay:10.37,2013-04-08 10:02:00,
2013-04-08 03:05:00,53.9,48.5,29.64,WSW,252,0.0,0.0,82,0.00,CLR,,0.00,WeatherDisplay:10.37,2013-04-08 10:05:00,
2013-04-08 03:08:00,53.8,48.8,29.64,SE,141,0.0,0.0,83,0.00,CLR,,0.00,WeatherDisplay:10.37,2013-04-08 10:08:00,
2013-04-08 03:10:00,53.8,48.8,29.64,SSE,153,0.0,0.0,83,0.00,CLR,,0.00,WeatherDisplay:10.37,2013-04-08 10:10:00,
2013-04-08 03:13:00,53.8,48.8,29.63,SE,141,0.0,0.0,83,0.00,CLR,,0.00,WeatherDisplay:10.37,2013-04-08 10:13:00,
2013-04-08 03:16:00,53.8,48.8,29.64,SSE,155,0.0,0.0,83,0.00,CLR,,0.00,WeatherDisplay:10.37,2013-04-08 10:16:00,
2013-04-08 03:18:00,53.8,48.8,29.63,SSE,155,0.0,0.0,83,0.00,CLR,,0.00,WeatherDisplay:10.37,2013-04-08 10:18:00,
2013-04-08 03:20:00,53.8,48.8,29.63,SSE,149,0.0,0.0,83,0.00,CLR,,0.00,WeatherDisplay:10.37,2013-04-08 10:20:00,
2013-04-08 03:21:00,53.8,48.8,29.64,SSE,155,0.0,0.0,83,0.00,CLR,,0.00,WeatherDisplay:10.37,2013-04-08 10:21:00,
2013-04-08 03:23:00,53.8,48.8,29.64,SSE,155,0.0,0.0,83,0.00,CLR,,0.00,WeatherDisplay:10.37,2013-04-08 10:23:00,
2013-04-08 03:24:00,53.8,48.8,29.64,SSE,155,0.0,0.0,83,0.00,CLR,,0.00,WeatherDisplay:10.37,2013-04-08 10:24:00,
2013-04-08 03:27:00,53.8,48.8,29.64,SSE,155,0.0,0.0,83,0.00,CLR,,0.00,WeatherDisplay:10.37,2013-04-08 10:27:00,
2013-04-08 03:28:00,53.8,48.8,29.64,WNW,289,0.0,0.0,83,0.00,CLR,,0.00,WeatherDisplay:10.37,2013-04-08 10:28:00,
2013-04-08 03:30:00,53.8,48.8,29.63,WNW,289,0.0,0.0,83,0.00,CLR,,0.00,WeatherDisplay:10.37,2013-04-08 10:30:00,
2013-04-08 03:32:00,53.8,48.8,29.63,WNW,289,0.0,0.0,83,0.00,CLR,,0.00,WeatherDisplay:10.37,2013-04-08 10:32:00,
2013-04-08 03:33:00,53.8,48.8,29.63,WNW,289,0.0,0.0,83,0.00,CLR,,0.00,WeatherDisplay:10.37,2013-04-08 10:33:00,
2013-04-08 03:35:00,53.8,48.8,29.63,WSW,248,0.0,0.0,83,0.00,CLR,,0.00,WeatherDisplay:10.37,2013-04-08 10:35:00,
2013-04-08 03:36:00,53.8,48.8,29.62,SSE,159,0.0,0.0,83,0.00,CLR,,0.00,WeatherDisplay:10.37,2013-04-08 10:36:00,
2013-04-08 03:37:00,53.6,48.6,29.62,SSE,168,0.0,0.0,83,0.00,CLR,,0.00,WeatherDisplay:10.37,2013-04-08 10:37:00,
2013-04-08 03:39:00,53.6,48.6,29.61,SSE,162,0.0,0.0,83,0.00,CLR,,0.00,WeatherDisplay:10.37,2013-04-08 10:39:00,
2013-04-08 03:41:00,53.6,48.6,29.60,SW,222,0.0,0.0,83,0.00,CLR,,0.00,WeatherDisplay:10.37,2013-04-08 10:41:00,
2013-04-08 03:42:00,53.6,48.6,29.60,ESE,104,0.0,0.0,83,0.00,CLR,,0.00,WeatherDisplay:10.37,2013-04-08 10:42:00,
2013-04-08 03:43:00,53.6,48.6,29.60,South,169,0.0,0.0,83,0.00,CLR,,0.00,WeatherDisplay:10.37,2013-04-08 10:43:00,
2013-04-08 03:44:00,53.6,48.6,29.60,South,173,0.0,0.0,83,0.00,CLR,,0.00,WeatherDisplay:10.37,2013-04-08 10:44:00,
2013-04-08 03:47:00,53.5,48.5,29.60,South,176,0.0,0.0,83,0.00,CLR,,0.00,WeatherDisplay:10.37,2013-04-08 10:47:00,
2013-04-08 03:49:00,53.5,48.1,29.60,SSE,159,0.0,0.0,82,0.00,CLR,,0.00,WeatherDisplay:10.37,2013-04-08 10:49:00,
2013-04-08 03:50:00,53.5,48.1,29.60,SSE,167,0.0,0.0,82,0.00,CLR,,0.00,WeatherDisplay:10.37,2013-04-08 10:50:00,
2013-04-08 03:52:00,53.5,48.1,29.60,SSE,159,0.0,0.0,82,0.00,CLR,,0.00,WeatherDisplay:10.37,2013-04-08 10:52:00,
2013-04-08 03:53:00,53.5,48.1,29.60,SSE,159,0.0,0.0,82,0.00,CLR,,0.00,WeatherDisplay:10.37,2013-04-08 10:53:00,
2013-04-08 03:55:00,53.5,48.1,29.60,West,271,0.0,0.0,82,0.00,CLR,,0.00,WeatherDisplay:10.37,2013-04-08 10:55:00,
2013-04-08 03:58:00,53.5,48.1,29.60,WSW,238,0.0,0.0,82,0.00,CLR,,0.00,WeatherDisplay:10.37,2013-04-08 10:58:00,
2013-04-08 04:00:00,53.5,48.1,29.60,West,279,0.0,0.0,82,0.00,CLR,,0.00,WeatherDisplay:10.37,2013-04-08 11:00:00,
2013-04-08 04:03:00,53.3,47.9,29.61,WSW,258,0.0,0.0,82,0.00,CLR,,0.00,WeatherDisplay:10.37,2013-04-08 11:03:00,
2013-04-08 04:05:00,53.3,47.9,29.62,WNW,284,0.0,0.0,82,0.00,CLR,,0.00,WeatherDisplay:10.37,2013-04-08 11:05:00,
2013-04-08 04:06:00,53.3,47.9,29.61,WNW,284,0.0,0.0,82,0.00,CLR,,0.00,WeatherDisplay:10.37,2013-04-08 11:06:00,
2013-04-08 04:07:00,53.3,47.9,29.61,WNW,282,0.0,0.0,82,0.00,CLR,,0.00,WeatherDisplay:10.37,2013-04-08 11:07:00,
2013-04-08 04:08:00,53.3,47.9,29.61,WNW,282,0.0,0.0,82,0.00,CLR,,0.00,WeatherDisplay:10.37,2013-04-08 11:08:00,
2013-04-08 04:12:00,53.3,47.6,29.61,SSE,154,0.0,0.0,81,0.00,CLR,,0.00,WeatherDisplay:10.37,2013-04-08 11:12:00,
2013-04-08 04:13:00,53.3,47.6,29.61,West,280,0.0,0.0,81,0.00,CLR,,0.00,WeatherDisplay:10.37,2013-04-08 11:13:00,
2013-04-08 04:15:00,53.3,47.6,29.61,SSW,207,0.0,0.0,81,0.00,CLR,,0.00,WeatherDisplay:10.37,2013-04-08 11:15:00,
2013-04-08 04:17:00,53.3,47.6,29.61,WSW,255,0.0,0.0,81,0.00,CLR,,0.00,WeatherDisplay:10.37,2013-04-08 11:17:00,
2013-04-08 04:20:00,53.3,47.6,29.61,SW,220,0.0,0.0,81,0.00,CLR,,0.00,WeatherDisplay:10.37,2013-04-08 11:20:00,
2013-04-08 04:21:00,53.3,47.6,29.61,NW,305,0.0,0.0,81,0.00,CLR,,0.00,WeatherDisplay:10.37,2013-04-08 11:21:00,
2013-04-08 04:22:00,53.3,47.6,29.61,WNW,289,0.0,0.0,81,0.00,CLR,,0.00,WeatherDisplay:10.37,2013-04-08 11:22:00,
2013-04-08 04:24:00,53.3,47.6,29.61,SW,226,0.0,0.0,81,0.00,CLR,,0.00,WeatherDisplay:10.37,2013-04-08 11:24:00,
2013-04-08 04:26:00,53.5,47.5,29.60,WNW,285,0.0,0.0,80,0.00,CLR,,0.00,WeatherDisplay:10.37,2013-04-08 11:26:00,
2013-04-08 04:28:00,53.3,47.3,29.61,SW,233,0.0,0.0,80,0.00,CLR,,0.00,WeatherDisplay:10.37,2013-04-08 11:28:00,
2013-04-08 04:29:00,53.3,47.3,29.62,NW,306,0.0,0.0,80,0.00,CLR,,0.00,WeatherDisplay:10.37,2013-04-08 11:29:00,
2013-04-08 04:32:00,53.3,47.3,29.62,WSW,251,0.0,0.0,80,0.00,CLR,,0.00,WeatherDisplay:10.37,2013-04-08 11:32:00,
2013-04-08 04:33:00,53.3,47.3,29.62,WSW,251,0.0,0.0,80,0.00,CLR,,0.00,WeatherDisplay:10.37,2013-04-08 11:33:00,
2013-04-08 04:35:00,53.3,47.0,29.62,West,261,0.0,0.0,79,0.00,CLR,,0.00,WeatherDisplay:10.37,2013-04-08 11:35:00,
2013-04-08 04:37:00,53.3,47.0,29.62,West,261,0.0,0.0,79,0.00,CLR,,0.00,WeatherDisplay:10.37,2013-04-08 11:37:00,
2013-04-08 04:39:00,53.5,47.1,29.61,West,274,0.0,0.0,79,0.00,CLR,,0.00,WeatherDisplay:10.37,2013-04-08 11:39:00,
2013-04-08 04:40:00,53.5,47.1,29.61,West,274,0.0,0.0,79,0.00,CLR,,0.00,WeatherDisplay:10.37,2013-04-08 11:40:00,
2013-04-08 04:41:00,53.5,47.1,29.62,WSW,258,0.0,0.0,79,0.00,CLR,,0.00,WeatherDisplay:10.37,2013-04-08 11:41:00,
2013-04-08 04:42:00,53.5,47.1,29.62,WNW,288,0.0,0.0,79,0.00,CLR,,0.00,WeatherDisplay:10.37,2013-04-08 11:42:00,
2013-04-08 04:45:00,53.5,47.1,29.62,WSW,258,0.0,0.0,79,0.00,CLR,,0.00,WeatherDisplay:10.37,2013-04-08 11:45:00,
2013-04-08 04:48:00,53.5,47.1,29.61,West,281,0.0,0.0,79,0.00,CLR,,0.00,WeatherDisplay:10.37,2013-04-08 11:48:00,
2013-04-08 04:50:00,53.5,47.1,29.61,WSW,252,0.0,0.0,79,0.00,CLR,,0.00,WeatherDisplay:10.37,2013-04-08 11:50:00,
2013-04-08 04:51:00,53.5,47.1,29.61,WSW,248,0.0,0.0,79,0.00,CLR,,0.00,WeatherDisplay:10.37,2013-04-08 11:51:00,
2013-04-08 04:53:00,53.5,47.1,29.61,South,172,0.0,0.0,79,0.00,CLR,,0.00,WeatherDisplay:10.37,2013-04-08 11:53:00,
2013-04-08 04:54:00,53.5,47.1,29.61,SSW,193,0.0,0.0,79,0.00,CLR,,0.00,WeatherDisplay:10.37,2013-04-08 11:54:00,
2013-04-08 04:57:00,53.5,47.1,29.61,SW,236,0.0,0.0,79,0.00,CLR,,0.00,WeatherDisplay:10.37,2013-04-08 11:57:00,
2013-04-08 04:59:00,53.5,46.8,29.61,SSW,198,0.0,0.0,78,0.00,CLR,,0.00,WeatherDisplay:10.37,2013-04-08 11:59:00,
2013-04-08 05:02:00,53.5,46.8,29.61,WSW,245,0.0,0.0,78,0.00,CLR,,0.00,WeatherDisplay:10.37,2013-04-08 12:02:00,
2013-04-08 05:03:00,53.5,46.8,29.61,West,264,0.0,0.0,78,0.00,CLR,,0.00,WeatherDisplay:10.37,2013-04-08 12:03:00,
2013-04-08 05:05:00,53.5,46.8,29.61,West,279,0.0,0.0,78,0.00,CLR,,0.00,WeatherDisplay:10.37,2013-04-08 12:05:00,
2013-04-08 05:06:00,53.5,46.8,29.61,SSE,164,0.0,0.0,78,0.00,CLR,,0.00,WeatherDisplay:10.37,2013-04-08 12:06:00,
2013-04-08 05:09:00,53.5,46.8,29.61,WSW,256,0.0,0.0,78,0.00,CLR,,0.00,WeatherDisplay:10.37,2013-04-08 12:09:00,
2013-04-08 05:10:00,53.5,46.8,29.61,WSW,256,0.0,0.0,78,0.00,CLR,,0.00,WeatherDisplay:10.37,2013-04-08 12:10:00,
2013-04-08 05:15:00,53.5,46.8,29.60,SW,223,0.0,0.0,78,0.00,CLR,,0.00,WeatherDisplay:10.37,2013-04-08 12:15:00,
2013-04-08 05:18:00,53.5,46.8,29.60,SSE,164,0.0,0.0,78,0.00,CLR,,0.00,WeatherDisplay:10.37,2013-04-08 12:18:00,
2013-04-08 05:20:00,53.5,46.8,29.60,SSW,193,0.0,0.0,78,0.00,CLR,,0.00,WeatherDisplay:10.37,2013-04-08 12:20:00,
2013-04-08 05:25:00,53.5,47.1,29.59,SSE,167,0.0,0.0,79,0.00,CLR,,0.00,WeatherDisplay:10.37,2013-04-08 12:25:00,
2013-04-08 05:26:00,53.3,47.0,29.60,South,179,0.0,0.0,79,0.00,CLR,,0.00,WeatherDisplay:10.37,2013-04-08 12:26:00,
2013-04-08 05:27:00,53.3,47.0,29.60,SSE,160,0.0,0.0,79,0.00,CLR,,0.00,WeatherDisplay:10.37,2013-04-08 12:27:00,
2013-04-08 05:31:00,53.3,47.0,29.60,SE,129,0.0,0.0,79,0.00,CLR,,0.00,WeatherDisplay:10.37,2013-04-08 12:31:00,
2013-04-08 05:33:00,53.2,46.9,29.60,SSE,166,0.0,0.0,79,0.00,CLR,,0.00,WeatherDisplay:10.37,2013-04-08 12:33:00,
2013-04-08 05:36:00,53.2,46.9,29.60,South,171,0.0,0.0,79,0.00,CLR,,0.00,WeatherDisplay:10.37,2013-04-08 12:36:00,
2013-04-08 05:39:00,53.1,46.8,29.60,South,183,0.0,0.0,79,0.00,CLR,,0.00,WeatherDisplay:10.37,2013-04-08 12:39:00,
2013-04-08 05:41:00,53.1,46.8,29.60,SSE,158,0.0,0.0,79,0.00,CLR,,0.00,WeatherDisplay:10.37,2013-04-08 12:41:00,
2013-04-08 05:44:00,53.1,47.1,29.60,South,173,0.0,0.0,80,0.00,CLR,,0.00,WeatherDisplay:10.37,2013-04-08 12:44:00,
2013-04-08 05:47:00,53.1,47.1,29.59,SSW,210,0.0,0.0,80,0.00,CLR,,0.00,WeatherDisplay:10.37,2013-04-08 12:47:00,
2013-04-08 05:48:00,53.1,47.1,29.59,SE,139,0.0,0.0,80,0.00,CLR,,0.00,WeatherDisplay:10.37,2013-04-08 12:48:00,
2013-04-08 05:49:00,53.1,47.1,29.59,South,190,0.0,0.0,80,0.00,CLR,,0.00,WeatherDisplay:10.37,2013-04-08 12:49:00,
2013-04-08 05:50:00,53.1,47.1,29.59,SSW,193,0.0,0.0,80,0.00,CLR,,0.00,WeatherDisplay:10.37,2013-04-08 12:50:00,
2013-04-08 05:53:00,52.9,46.9,29.59,WNW,295,0.0,0.0,80,0.00,CLR,,0.00,WeatherDisplay:10.37,2013-04-08 12:53:00,
2013-04-08 05:55:00,52.9,46.9,29.59,South,189,0.0,0.0,80,0.00,CLR,,0.00,WeatherDisplay:10.37,2013-04-08 12:55:00,
2013-04-08 05:56:00,52.9,46.9,29.59,SSE,153,0.0,0.0,80,0.00,CLR,,0.00,WeatherDisplay:10.37,2013-04-08 12:56:00,
2013-04-08 05:58:00,52.9,46.9,29.59,WNW,295,0.0,0.0,80,0.00,CLR,,0.00,WeatherDisplay:10.37,2013-04-08 12:58:00,
2013-04-08 06:00:00,52.9,46.9,29.59,South,185,0.0,0.0,80,0.00,CLR,,0.00,WeatherDisplay:10.37,2013-04-08 13:00:00,
2013-04-08 06:02:00,52.9,46.9,29.59,SW,217,0.0,0.0,80,0.00,CLR,,0.00,WeatherDisplay:10.37,2013-04-08 13:02:00,
2013-04-08 06:04:00,52.9,46.9,29.59,South,175,0.0,0.0,80,0.00,CLR,,0.00,WeatherDisplay:10.37,2013-04-08 13:04:00,
2013-04-08 06:05:00,52.9,46.9,29.59,South,175,0.0,0.0,80,0.00,CLR,,0.00,WeatherDisplay:10.37,2013-04-08 13:05:00,
2013-04-08 06:06:00,52.9,47.2,29.59,South,175,0.0,0.0,81,0.00,CLR,,0.00,WeatherDisplay:10.37,2013-04-08 13:06:00,
2013-04-08 06:09:00,52.8,47.1,29.59,SSE,168,0.0,0.0,81,0.00,CLR,,0.00,WeatherDisplay:10.37,2013-04-08 13:09:00,
2013-04-08 06:11:00,52.8,47.1,29.59,South,183,0.0,0.0,81,0.00,CLR,,0.00,WeatherDisplay:10.37,2013-04-08 13:11:00,
2013-04-08 06:12:00,52.8,47.1,29.58,South,185,0.0,0.0,81,0.00,CLR,,0.00,WeatherDisplay:10.37,2013-04-08 13:12:00,
2013-04-08 06:14:00,52.8,47.1,29.58,South,169,0.0,0.0,81,0.00,CLR,,0.00,WeatherDisplay:10.37,2013-04-08 13:14:00,
2013-04-08 06:15:00,52.8,47.1,29.58,South,179,0.0,0.0,81,0.00,CLR,,0.00,WeatherDisplay:10.37,2013-04-08 13:15:00,
2013-04-08 06:17:00,52.6,47.3,29.58,SSE,165,0.0,0.0,82,0.00,CLR,,0.00,WeatherDisplay:10.37,2013-04-08 13:17:00,
2013-04-08 06:20:00,52.6,47.3,29.58,South,177,0.0,0.0,82,0.00,CLR,,0.00,WeatherDisplay:10.37,2013-04-08 13:20:00,
2013-04-08 06:22:00,52.6,47.3,29.58,SSE,153,0.0,0.0,82,0.00,CLR,,0.00,WeatherDisplay:10.37,2013-04-08 13:22:00,
2013-04-08 06:26:00,52.5,47.2,29.59,SSE,163,0.0,0.0,82,0.00,CLR,,0.00,WeatherDisplay:10.37,2013-04-08 13:26:00,
2013-04-08 06:28:00,52.5,47.2,29.59,West,277,0.0,0.0,82,0.00,CLR,,0.00,WeatherDisplay:10.37,2013-04-08 13:28:00,
2013-04-08 06:29:00,52.5,47.2,29.61,SW,222,0.0,0.0,82,0.00,CLR,,0.00,WeatherDisplay:10.37,2013-04-08 13:29:00,
2013-04-08 06:34:00,52.5,47.2,29.61,West,262,0.0,0.0,82,0.00,CLR,,0.00,WeatherDisplay:10.37,2013-04-08 13:34:00,
2013-04-08 06:35:00,52.5,47.2,29.61,WSW,248,0.0,0.0,82,0.00,CLR,,0.00,WeatherDisplay:10.37,2013-04-08 13:35:00,
2013-04-08 06:36:00,52.5,47.2,29.61,SSE,155,0.0,0.0,82,0.00,CLR,,0.00,WeatherDisplay:10.37,2013-04-08 13:36:00,
2013-04-08 06:39:00,52.5,46.8,29.61,SW,226,0.0,0.0,81,0.00,CLR,,0.00,WeatherDisplay:10.37,2013-04-08 13:39:00,
2013-04-08 06:40:00,52.5,46.8,29.61,SE,146,0.0,0.0,81,0.00,CLR,,0.00,WeatherDisplay:10.37,2013-04-08 13:40:00,
2013-04-08 06:41:00,52.5,46.8,29.61,SE,146,0.0,0.0,81,0.00,CLR,,0.00,WeatherDisplay:10.37,2013-04-08 13:41:00,
2013-04-08 06:42:00,52.5,46.8,29.61,SSE,166,0.0,0.0,81,0.00,CLR,,0.00,WeatherDisplay:10.37,2013-04-08 13:42:00,
2013-04-08 06:47:00,52.5,46.8,29.61,SSW,212,0.0,0.0,81,0.00,CLR,,0.00,WeatherDisplay:10.37,2013-04-08 13:47:00,
2013-04-08 06:48:00,52.5,46.8,29.60,South,176,0.0,0.0,81,0.00,CLR,,0.00,WeatherDisplay:10.37,2013-04-08 13:48:00,
2013-04-08 06:50:00,52.5,46.8,29.60,South,184,0.0,0.0,81,0.00,CLR,,0.00,WeatherDisplay:10.37,2013-04-08 13:50:00,
2013-04-08 06:52:00,52.5,46.5,29.60,South,191,0.0,0.0,80,0.00,CLR,,0.00,WeatherDisplay:10.37,2013-04-08 13:52:00,
2013-04-08 06:53:00,52.5,46.5,29.60,SW,221,0.0,0.0,80,0.00,CLR,,0.00,WeatherDisplay:10.37,2013-04-08 13:53:00,
2013-04-08 06:55:00,52.5,46.5,29.59,WSW,243,0.0,0.0,80,0.00,CLR,,0.00,WeatherDisplay:10.37,2013-04-08 13:55:00,
2013-04-08 06:59:00,52.5,46.5,29.58,South,171,0.0,0.0,80,0.00,CLR,,0.00,WeatherDisplay:10.37,2013-04-08 13:59:00,
2013-04-08 07:00:00,52.5,46.5,29.58,SSW,199,0.0,0.0,80,0.00,CLR,,0.00,WeatherDisplay:10.37,2013-04-08 14:00:00,
2013-04-08 07:03:00,52.6,46.6,29.59,West,268,0.0,0.0,80,0.00,FEW,,0.00,WeatherDisplay:10.37,2013-04-08 14:03:00,
2013-04-08 07:04:00,52.6,46.6,29.59,SE,128,0.0,0.0,80,0.00,FEW,,0.00,WeatherDisplay:10.37,2013-04-08 14:04:00,
2013-04-08 07:09:00,52.6,46.6,29.58,SSE,158,0.0,0.0,80,0.00,FEW,,0.00,WeatherDisplay:10.37,2013-04-08 14:09:00,
2013-04-08 07:14:00,52.6,46.6,29.58,West,266,0.0,0.0,80,0.00,FEW,,0.00,WeatherDisplay:10.37,2013-04-08 14:14:00,
2013-04-08 07:15:00,52.6,46.6,29.58,SSW,206,0.0,0.0,80,0.00,FEW,,0.00,WeatherDisplay:10.37,2013-04-08 14:15:00,
2013-04-08 07:19:00,52.6,46.6,29.58,West,271,0.0,0.0,80,0.00,FEW,,0.00,WeatherDisplay:10.37,2013-04-08 14:19:00,
2013-04-08 07:20:00,52.6,46.6,29.58,SSW,200,0.0,0.0,80,0.00,FEW,,0.00,WeatherDisplay:10.37,2013-04-08 14:20:00,
2013-04-08 07:24:00,52.6,46.6,29.58,South,188,0.0,0.0,80,0.00,FEW,,0.00,WeatherDisplay:10.37,2013-04-08 14:24:00,
2013-04-08 07:25:00,52.6,46.6,29.58,South,184,0.0,0.0,80,0.00,FEW,,0.00,WeatherDisplay:10.37,2013-04-08 14:25:00,
2013-04-08 07:26:00,52.6,46.6,29.58,SSW,210,0.0,0.0,80,0.00,FEW,,0.00,WeatherDisplay:10.37,2013-04-08 14:26:00,
2013-04-08 07:30:00,52.6,46.3,29.58,South,187,0.0,0.0,79,0.00,FEW,,0.00,WeatherDisplay:10.37,2013-04-08 14:30:00,
2013-04-08 07:31:00,52.6,46.3,29.59,SE,143,0.0,0.0,79,0.00,FEW,,0.00,WeatherDisplay:10.37,2013-04-08 14:31:00,
2013-04-08 07:32:00,52.6,46.3,29.59,South,169,0.0,0.0,79,0.00,FEW,,0.00,WeatherDisplay:10.37,2013-04-08 14:32:00,
2013-04-08 07:33:00,52.6,46.3,29.59,SSE,165,0.0,0.0,79,0.00,FEW,,0.00,WeatherDisplay:10.37,2013-04-08 14:33:00,
2013-04-08 07:36:00,52.6,46.3,29.59,South,186,0.0,0.0,79,0.00,FEW,,0.00,WeatherDisplay:10.37,2013-04-08 14:36:00,
2013-04-08 07:38:00,52.6,46.3,29.59,SE,139,0.0,0.0,79,0.00,FEW,,0.00,WeatherDisplay:10.37,2013-04-08 14:38:00,
2013-04-08 07:40:00,52.8,46.1,29.59,South,180,0.0,0.0,78,0.00,FEW,,0.00,WeatherDisplay:10.37,2013-04-08 14:40:00,
2013-04-08 07:44:00,52.8,46.1,29.58,SW,217,0.0,0.0,78,0.00,FEW,,0.00,WeatherDisplay:10.37,2013-04-08 14:44:00,
2013-04-08 07:45:00,52.8,46.1,29.58,SSW,200,0.0,0.0,78,0.00,FEW,,0.00,WeatherDisplay:10.37,2013-04-08 14:45:00,
2013-04-08 07:46:00,52.8,46.1,29.58,South,169,0.0,0.0,78,0.00,FEW,,0.00,WeatherDisplay:10.37,2013-04-08 14:46:00,
2013-04-08 07:47:00,52.8,46.1,29.58,WSW,249,0.0,0.0,78,0.00,FEW,,0.00,WeatherDisplay:10.37,2013-04-08 14:47:00,
2013-04-08 07:50:00,52.8,46.1,29.58,SSE,164,0.0,0.0,78,0.00,FEW,,0.00,WeatherDisplay:10.37,2013-04-08 14:50:00,
2013-04-08 07:52:00,52.8,45.8,29.58,SSE,158,0.0,0.0,77,0.00,FEW,,0.00,WeatherDisplay:10.37,2013-04-08 14:52:00,
2013-04-08 07:53:00,52.8,45.8,29.59,SSE,161,0.0,0.0,77,0.00,FEW,,0.00,WeatherDisplay:10.37,2013-04-08 14:53:00,
2013-04-08 07:56:00,52.8,45.8,29.59,SSW,211,0.0,0.0,77,0.00,FEW,,0.00,WeatherDisplay:10.37,2013-04-08 14:56:00,
2013-04-08 07:57:00,52.8,45.8,29.59,SSE,162,0.0,0.0,77,0.00,FEW,,0.00,WeatherDisplay:10.37,2013-04-08 14:57:00,
2013-04-08 07:59:00,52.9,45.5,29.59,South,170,0.0,0.0,76,0.00,FEW,,0.00,WeatherDisplay:10.37,2013-04-08 14:59:00,
2013-04-08 08:02:00,53.1,45.7,29.59,South,183,0.0,0.0,76,0.00,FEW,,0.00,WeatherDisplay:10.37,2013-04-08 15:02:00,
2013-04-08 08:03:00,53.1,45.7,29.59,SSE,152,0.0,0.0,76,0.00,FEW,,0.00,WeatherDisplay:10.37,2013-04-08 15:03:00,
2013-04-08 08:04:00,53.1,45.7,29.59,SW,233,0.0,0.0,76,0.00,FEW,,0.00,WeatherDisplay:10.37,2013-04-08 15:04:00,
2013-04-08 08:07:00,53.2,45.8,29.60,SSW,211,0.0,0.0,76,0.00,FEW,,0.00,WeatherDisplay:10.37,2013-04-08 15:07:00,
2013-04-08 08:08:00,53.2,45.8,29.59,SW,236,0.0,0.0,76,0.00,FEW,,0.00,WeatherDisplay:10.37,2013-04-08 15:08:00,
2013-04-08 08:10:00,53.1,45.7,29.60,WSW,252,0.0,0.0,76,0.00,FEW,,0.00,WeatherDisplay:10.37,2013-04-08 15:10:00,
2013-04-08 08:13:00,53.1,45.7,29.60,SW,217,0.0,0.0,76,0.00,FEW,,0.00,WeatherDisplay:10.37,2013-04-08 15:13:00,
2013-04-08 08:14:00,53.1,45.7,29.60,SSE,158,0.0,0.0,76,0.00,FEW,,0.00,WeatherDisplay:10.37,2013-04-08 15:14:00,
2013-04-08 08:16:00,52.9,45.5,29.60,SW,228,0.0,0.0,76,0.00,FEW,,0.00,WeatherDisplay:10.37,2013-04-08 15:16:00,
2013-04-08 08:18:00,52.8,45.4,29.60,SW,229,0.0,0.0,76,0.00,FEW,,0.00,WeatherDisplay:10.37,2013-04-08 15:18:00,
2013-04-08 08:19:00,52.8,45.4,29.60,West,259,0.0,0.0,76,0.00,FEW,,0.00,WeatherDisplay:10.37,2013-04-08 15:19:00,
2013-04-08 08:24:00,52.5,45.2,29.60,WSW,248,0.0,0.0,76,0.00,FEW,,0.00,WeatherDisplay:10.37,2013-04-08 15:24:00,
2013-04-08 08:26:00,52.3,44.6,29.60,West,279,0.0,0.0,75,0.00,FEW,,0.00,WeatherDisplay:10.37,2013-04-08 15:26:00,
2013-04-08 08:28:00,52.3,44.6,29.60,WSW,258,0.0,0.0,75,0.00,FEW,,0.00,WeatherDisplay:10.37,2013-04-08 15:28:00,
2013-04-08 08:30:00,52.3,44.6,29.61,SSW,213,0.0,0.0,75,0.00,FEW,,0.00,WeatherDisplay:10.37,2013-04-08 15:30:00,
2013-04-08 08:34:00,52.2,43.8,29.61,SW,218,0.0,0.0,73,0.00,FEW,,0.00,WeatherDisplay:10.37,2013-04-08 15:34:00,
2013-04-08 08:35:00,52.2,43.4,29.61,South,179,0.0,0.0,72,0.00,FEW,,0.00,WeatherDisplay:10.37,2013-04-08 15:35:00,
2013-04-08 08:37:00,52.2,43.1,29.61,SSE,168,0.0,0.0,71,0.00,FEW,,0.00,WeatherDisplay:10.37,2013-04-08 15:37:00,
2013-04-08 08:39:00,52.2,43.1,29.62,SW,214,0.0,0.0,71,0.00,FEW,,0.00,WeatherDisplay:10.37,2013-04-08 15:39:00,
2013-04-08 08:40:00,52.2,43.1,29.61,SSW,194,0.0,0.0,71,0.00,FEW,,0.00,WeatherDisplay:10.37,2013-04-08 15:40:00,
2013-04-08 08:42:00,52.2,42.3,29.61,SSW,193,0.0,0.0,69,0.00,FEW,,0.00,WeatherDisplay:10.37,2013-04-08 15:42:00,
2013-04-08 08:45:00,52.3,42.8,29.61,South,191,0.0,0.0,70,0.00,FEW,,0.00,WeatherDisplay:10.37,2013-04-08 15:45:00,
2013-04-08 08:46:00,52.3,42.4,29.61,South,188,0.0,0.0,69,0.00,FEW,,0.00,WeatherDisplay:10.37,2013-04-08 15:46:00,
2013-04-08 08:48:00,52.3,42.4,29.61,SSW,208,0.0,0.0,69,0.00,FEW,,0.00,WeatherDisplay:10.37,2013-04-08 15:48:00,
2013-04-08 08:51:00,52.5,43.0,29.60,South,169,0.0,0.0,70,0.00,FEW,,0.00,WeatherDisplay:10.37,2013-04-08 15:51:00,
2013-04-08 08:53:00,52.5,42.6,29.60,SSE,167,0.0,0.0,69,0.00,FEW,,0.00,WeatherDisplay:10.37,2013-04-08 15:53:00,
2013-04-08 08:55:00,52.6,42.7,29.60,South,189,0.0,0.0,69,0.00,FEW,,0.00,WeatherDisplay:10.37,2013-04-08 15:55:00,
2013-04-08 08:57:00,52.8,42.5,29.61,SW,235,0.0,0.0,68,0.00,FEW,,0.00,WeatherDisplay:10.37,2013-04-08 15:57:00,
2013-04-08 08:58:00,52.9,42.6,29.61,SW,221,0.0,0.0,68,0.00,FEW,,0.00,WeatherDisplay:10.37,2013-04-08 15:58:00,
2013-04-08 09:00:00,53.1,42.8,29.61,South,179,0.0,0.0,68,0.00,FEW,,0.00,WeatherDisplay:10.37,2013-04-08 16:00:00,
2013-04-08 09:02:00,53.2,42.1,29.60,SSW,210,0.0,0.0,66,0.00,FEW,,0.00,WeatherDisplay:10.37,2013-04-08 16:02:00,
2013-04-08 09:03:00,53.2,42.1,29.60,SSE,166,0.0,0.0,66,0.00,FEW,,0.00,WeatherDisplay:10.37,2013-04-08 16:03:00,
2013-04-08 09:05:00,53.2,42.5,29.61,South,181,0.0,0.0,67,0.00,FEW,,0.00,WeatherDisplay:10.37,2013-04-08 16:05:00,
2013-04-08 09:06:00,53.1,43.2,29.60,SSE,162,0.0,0.0,69,0.00,FEW,,0.00,WeatherDisplay:10.37,2013-04-08 16:06:00,
2013-04-08 09:08:00,53.1,43.6,29.61,SSW,204,0.0,0.0,70,0.00,FEW,,0.00,WeatherDisplay:10.37,2013-04-08 16:08:00,
2013-04-08 09:09:00,52.9,43.7,29.61,South,178,0.0,0.0,71,0.00,FEW,,0.00,WeatherDisplay:10.37,2013-04-08 16:09:00,
2013-04-08 09:10:00,52.8,43.7,29.61,SSW,196,0.0,0.0,71,0.00,FEW,,0.00,WeatherDisplay:10.37,2013-04-08 16:10:00,
2013-04-08 09:12:00,52.8,44.0,29.61,South,174,0.0,0.0,72,0.00,FEW,,0.00,WeatherDisplay:10.37,2013-04-08 16:12:00,
2013-04-08 09:14:00,52.8,43.7,29.61,SSE,148,0.0,0.0,71,0.00,FEW,,0.00,WeatherDisplay:10.37,2013-04-08 16:14:00,
2013-04-08 09:15:00,52.8,43.7,29.61,SSE,161,0.0,0.0,71,0.00,FEW,,0.00,WeatherDisplay:10.37,2013-04-08 16:15:00,
2013-04-08 09:17:00,52.8,43.7,29.61,South,189,0.0,0.0,71,0.00,FEW,,0.00,WeatherDisplay:10.37,2013-04-08 16:17:00,
2013-04-08 09:18:00,52.9,43.7,29.61,SSW,200,0.0,0.0,71,0.00,FEW,,0.00,WeatherDisplay:10.37,2013-04-08 16:18:00,
2013-04-08 09:19:00,52.9,44.1,29.61,West,259,0.0,0.0,72,0.00,FEW,,0.00,WeatherDisplay:10.37,2013-04-08 16:19:00,
2013-04-08 09:22:00,52.9,44.1,29.61,SSE,159,0.0,0.0,72,0.00,FEW,,0.00,WeatherDisplay:10.37,2013-04-08 16:22:00,
2013-04-08 09:26:00,53.2,44.8,29.62,SSE,166,0.0,0.0,73,0.00,FEW,,0.00,WeatherDisplay:10.37,2013-04-08 16:26:00,
2013-04-08 09:27:00,53.2,44.8,29.62,SSE,155,0.0,0.0,73,0.00,FEW,,0.00,WeatherDisplay:10.37,2013-04-08 16:27:00,
2013-04-08 09:29:00,52.9,45.2,29.62,SE,145,0.0,0.0,75,0.00,FEW,,0.00,WeatherDisplay:10.37,2013-04-08 16:29:00,
2013-04-08 09:30:00,53.0,44.9,29.62,South,179,0.0,0.0,74,0.00,FEW,,0.00,WeatherDisplay:10.37,2013-04-08 16:30:00,
2013-04-08 09:31:00,52.6,45.2,29.62,SSE,167,0.0,0.0,76,0.00,FEW,,0.00,WeatherDisplay:10.37,2013-04-08 16:31:00,
2013-04-08 09:32:00,52.6,45.2,29.62,South,172,0.0,0.0,76,0.00,FEW,,0.00,WeatherDisplay:10.37,2013-04-08 16:32:00,
2013-04-08 09:35:00,52.6,45.9,29.62,South,182,0.0,0.0,78,0.00,FEW,,0.00,WeatherDisplay:10.37,2013-04-08 16:35:00,
2013-04-08 09:37:00,52.6,46.3,29.62,South,188,0.0,0.0,79,0.00,FEW,,0.00,WeatherDisplay:10.37,2013-04-08 16:37:00,
2013-04-08 09:39:00,52.6,46.6,29.62,South,175,0.0,0.0,80,0.00,FEW,,0.00,WeatherDisplay:10.37,2013-04-08 16:39:00,
2013-04-08 09:41:00,52.5,45.8,29.62,South,181,0.0,0.0,78,0.00,FEW,,0.00,WeatherDisplay:10.37,2013-04-08 16:41:00,
2013-04-08 09:43:00,52.3,45.3,29.62,South,181,0.0,0.0,77,0.00,FEW,,0.00,WeatherDisplay:10.37,2013-04-08 16:43:00,
2013-04-08 09:44:00,52.2,45.5,29.62,West,266,0.0,0.0,78,0.00,FEW,,0.00,WeatherDisplay:10.37,2013-04-08 16:44:00,
2013-04-08 09:46:00,52.2,45.9,29.62,SSE,167,0.0,0.0,79,0.00,FEW,,0.00,WeatherDisplay:10.37,2013-04-08 16:46:00,
2013-04-08 09:48:00,52.0,44.7,29.62,SW,230,0.0,0.0,76,0.00,FEW,,0.00,WeatherDisplay:10.37,2013-04-08 16:48:00,
2013-04-08 09:49:00,52.0,44.7,29.62,SSE,168,0.0,0.0,76,0.00,FEW,,0.00,WeatherDisplay:10.37,2013-04-08 16:49:00,
2013-04-08 09:50:00,52.0,45.4,29.62,SW,214,0.0,0.0,78,0.00,FEW,,0.00,WeatherDisplay:10.37,2013-04-08 16:50:00,
2013-04-08 09:52:00,52.2,45.9,29.62,SSW,200,0.0,0.0,79,0.00,FEW,,0.00,WeatherDisplay:10.37,2013-04-08 16:52:00,
2013-04-08 09:55:00,52.3,45.6,29.62,SSW,202,0.0,0.0,78,0.00,FEW,,0.00,WeatherDisplay:10.37,2013-04-08 16:55:00,
2013-04-08 09:56:00,52.3,45.3,29.61,SSE,152,0.0,0.0,77,0.00,FEW,,0.00,WeatherDisplay:10.37,2013-04-08 16:56:00,
2013-04-08 09:57:00,52.3,45.6,29.61,SW,227,0.0,0.0,78,0.00,FEW,,0.00,WeatherDisplay:10.37,2013-04-08 16:57:00,
2013-04-08 09:58:00,52.5,45.8,29.61,WSW,243,0.0,0.0,78,0.00,FEW,,0.00,WeatherDisplay:10.37,2013-04-08 16:58:00,
2013-04-08 10:00:00,52.5,45.5,29.61,SE,146,0.0,0.0,77,0.00,FEW,,0.00,WeatherDisplay:10.37,2013-04-08 17:00:00,
2013-04-08 10:01:00,52.5,45.5,29.61,SSE,150,0.0,0.0,77,0.00,OVC,,0.00,WeatherDisplay:10.37,2013-04-08 17:01:00,
2013-04-08 10:02:00,52.5,45.5,29.61,SE,146,0.0,0.0,77,0.00,OVC,,0.00,WeatherDisplay:10.37,2013-04-08 17:02:00,
2013-04-08 10:05:00,52.2,44.9,29.61,West,270,0.0,0.0,76,0.00,OVC,,0.00,WeatherDisplay:10.37,2013-04-08 17:05:00,
2013-04-08 10:07:00,51.9,44.6,29.61,SSE,157,0.0,0.0,76,0.00,OVC,,0.00,WeatherDisplay:10.37,2013-04-08 17:07:00,
2013-04-08 10:08:00,51.7,44.4,29.61,SSE,149,0.0,0.0,76,0.00,OVC,,0.00,WeatherDisplay:10.37,2013-04-08 17:08:00,
2013-04-08 10:12:00,51.7,44.4,29.61,South,184,0.0,0.0,76,0.00,OVC,,0.00,WeatherDisplay:10.37,2013-04-08 17:12:00,
2013-04-08 10:13:00,51.6,43.6,29.62,South,169,0.0,0.0,74,0.00,OVC,,0.00,WeatherDisplay:10.37,2013-04-08 17:13:00,
2013-04-08 10:14:00,51.7,44.4,29.62,West,280,0.0,0.0,76,0.00,OVC,,0.00,WeatherDisplay:10.37,2013-04-08 17:14:00,
2013-04-08 10:17:00,52.0,44.3,29.62,SSE,153,0.0,0.0,75,0.00,OVC,,0.00,WeatherDisplay:10.37,2013-04-08 17:17:00,
2013-04-08 10:19:00,52.5,44.1,29.62,SSE,162,0.0,0.0,73,0.00,OVC,,0.00,WeatherDisplay:10.37,2013-04-08 17:19:00,
2013-04-08 10:21:00,52.6,43.8,29.61,SSW,198,0.0,0.0,72,0.00,OVC,,0.00,WeatherDisplay:10.37,2013-04-08 17:21:00,
2013-04-08 10:22:00,52.6,43.5,29.61,South,185,0.0,0.0,71,0.00,OVC,,0.00,WeatherDisplay:10.37,2013-04-08 17:22:00,
2013-04-08 10:25:00,52.8,42.9,29.62,South,184,0.0,0.0,69,0.00,OVC,,0.00,WeatherDisplay:10.37,2013-04-08 17:25:00,
2013-04-08 10:26:00,52.8,42.9,29.62,South,177,0.0,0.0,69,0.00,OVC,,0.00,WeatherDisplay:10.37,2013-04-08 17:26:00,
2013-04-08 10:28:00,52.9,43.0,29.62,SW,224,0.0,0.0,69,0.00,OVC,,0.00,WeatherDisplay:10.37,2013-04-08 17:28:00,
2013-04-08 10:30:00,53.1,42.8,29.62,SW,231,0.0,0.0,68,0.00,OVC,,0.00,WeatherDisplay:10.37,2013-04-08 17:30:00,
2013-04-08 10:32:00,53.2,42.9,29.62,South,183,0.0,0.0,68,0.00,OVC,,0.00,WeatherDisplay:10.37,2013-04-08 17:32:00,
2013-04-08 10:35:00,53.3,42.2,29.63,SSW,206,0.0,0.0,66,0.00,OVC,,0.00,WeatherDisplay:10.37,2013-04-08 17:35:00,
2013-04-08 10:37:00,53.5,42.4,29.63,West,280,0.0,0.0,66,0.00,OVC,,0.00,WeatherDisplay:10.37,2013-04-08 17:37:00,
2013-04-08 10:40:00,53.3,41.4,29.63,South,172,0.0,0.0,64,0.00,OVC,,0.00,WeatherDisplay:10.37,2013-04-08 17:40:00,
2013-04-08 10:43:00,53.2,41.7,29.62,WSW,257,0.0,0.0,65,0.00,OVC,,0.00,WeatherDisplay:10.37,2013-04-08 17:43:00,
2013-04-08 10:44:00,53.2,41.7,29.62,SSE,160,0.0,0.0,65,0.00,OVC,,0.00,WeatherDisplay:10.37,2013-04-08 17:44:00,
2013-04-08 10:45:00,53.2,41.3,29.62,SSE,147,0.0,0.0,64,0.00,OVC,,0.00,WeatherDisplay:10.37,2013-04-08 17:45:00,
2013-04-08 10:48:00,53.1,40.8,29.62,WSW,248,0.0,0.0,63,0.00,OVC,,0.00,WeatherDisplay:10.37,2013-04-08 17:48:00,
2013-04-08 10:49:00,53.2,41.3,29.62,WSW,243,0.0,0.0,64,0.00,OVC,,0.00,WeatherDisplay:10.37,2013-04-08 17:49:00,
2013-04-08 10:50:00,53.2,41.3,29.62,SSW,194,0.0,0.0,64,0.00,OVC,,0.00,WeatherDisplay:10.37,2013-04-08 17:50:00,
2013-04-08 10:52:00,53.5,41.6,29.62,SSW,198,0.0,0.0,64,0.00,OVC,,0.00,WeatherDisplay:10.37,2013-04-08 17:52:00,
2013-04-08 10:55:00,53.6,40.9,29.62,SSW,193,0.0,0.0,62,0.00,OVC,,0.00,WeatherDisplay:10.37,2013-04-08 17:55:00,
2013-04-08 10:57:00,53.6,41.3,29.62,SW,219,0.0,0.0,63,0.00,OVC,,0.00,WeatherDisplay:10.37,2013-04-08 17:57:00,
2013-04-08 10:58:00,53.6,40.9,29.62,SSE,162,0.0,0.0,62,0.00,OVC,,0.00,WeatherDisplay:10.37,2013-04-08 17:58:00,
2013-04-08 11:00:00,53.8,40.7,29.62,West,263,0.0,0.0,61,0.00,OVC,,0.00,WeatherDisplay:10.37,2013-04-08 18:00:00,
2013-04-08 11:01:00,53.8,40.7,29.62,SW,221,0.0,0.0,61,0.00,SCT,,0.00,WeatherDisplay:10.37,2013-04-08 18:01:00,
2013-04-08 11:02:00,53.8,40.7,29.63,WSW,250,0.0,0.0,61,0.00,SCT,,0.00,WeatherDisplay:10.37,2013-04-08 18:02:00,
2013-04-08 11:03:00,53.9,40.8,29.63,SSE,165,0.0,0.0,61,0.00,SCT,,0.00,WeatherDisplay:10.37,2013-04-08 18:03:00,
2013-04-08 11:05:00,53.9,40.8,29.63,SW,221,0.0,0.0,61,0.00,SCT,,0.00,WeatherDisplay:10.37,2013-04-08 18:05:00,
2013-04-08 11:08:00,53.9,40.3,29.63,SSE,154,0.0,0.0,60,0.00,SCT,,0.00,WeatherDisplay:10.37,2013-04-08 18:08:00,
2013-04-08 11:09:00,53.9,40.8,29.63,WNW,283,0.0,0.0,61,0.00,SCT,,0.00,WeatherDisplay:10.37,2013-04-08 18:09:00,
2013-04-08 11:11:00,53.9,40.8,29.62,SSE,160,0.0,0.0,61,0.00,SCT,,0.00,WeatherDisplay:10.37,2013-04-08 18:11:00,
2013-04-08 11:13:00,53.8,40.7,29.62,SSE,162,0.0,0.0,61,0.00,SCT,,0.00,WeatherDisplay:10.37,2013-04-08 18:13:00,
2013-04-08 11:14:00,53.6,40.5,29.62,SSW,206,0.0,0.0,61,0.00,SCT,,0.00,WeatherDisplay:10.37,2013-04-08 18:14:00,
2013-04-08 11:18:00,53.6,40.9,29.62,SSE,149,0.0,0.0,62,0.00,SCT,,0.00,WeatherDisplay:10.37,2013-04-08 18:18:00,
2013-04-08 11:19:00,53.5,40.4,29.62,South,189,0.0,0.0,61,0.00,SCT,,0.00,WeatherDisplay:10.37,2013-04-08 18:19:00,
2013-04-08 11:21:00,53.3,41.0,29.62,SW,217,0.0,0.0,63,0.00,SCT,,0.00,WeatherDisplay:10.37,2013-04-08 18:21:00,
2013-04-08 11:24:00,53.2,40.5,29.62,WSW,244,0.0,0.0,62,0.00,SCT,,0.00,WeatherDisplay:10.37,2013-04-08 18:24:00,
2013-04-08 11:25:00,53.2,40.5,29.62,SSE,164,0.0,0.0,62,0.00,SCT,,0.00,WeatherDisplay:10.37,2013-04-08 18:25:00,
2013-04-08 11:27:00,53.2,40.5,29.61,South,189,0.0,0.0,62,0.00,SCT,,0.00,WeatherDisplay:10.37,2013-04-08 18:27:00,
2013-04-08 11:30:00,53.1,40.4,29.62,WNW,285,0.0,0.0,62,0.00,SCT,,0.00,WeatherDisplay:10.37,2013-04-08 18:30:00,
2013-04-08 11:33:00,53.1,40.4,29.61,SE,144,0.0,0.0,62,0.00,SCT,,0.00,WeatherDisplay:10.37,2013-04-08 18:33:00,
2013-04-08 11:35:00,53.2,40.5,29.62,West,261,0.0,0.0,62,0.00,SCT,,0.00,WeatherDisplay:10.37,2013-04-08 18:35:00,
2013-04-08 11:36:00,53.2,40.5,29.61,WSW,237,0.0,0.0,62,0.00,SCT,,0.00,WeatherDisplay:10.37,2013-04-08 18:36:00,
2013-04-08 11:38:00,53.3,40.2,29.61,WSW,240,0.0,0.0,61,0.00,SCT,,0.00,WeatherDisplay:10.37,2013-04-08 18:38:00,
2013-04-08 11:41:00,53.3,40.2,29.62,WSW,238,0.0,0.0,61,0.00,SCT,,0.00,WeatherDisplay:10.37,2013-04-08 18:41:00,
2013-04-08 11:43:00,53.3,39.8,29.62,WSW,257,0.0,0.0,60,0.00,SCT,,0.00,WeatherDisplay:10.37,2013-04-08 18:43:00,
2013-04-08 11:45:00,53.3,39.8,29.61,SSW,205,0.0,0.0,60,0.00,SCT,,0.00,WeatherDisplay:10.37,2013-04-08 18:45:00,
2013-04-08 11:49:00,53.3,40.2,29.61,South,181,0.0,0.0,61,0.00,SCT,,0.00,WeatherDisplay:10.37,2013-04-08 18:49:00,
2013-04-08 11:50:00,53.3,40.2,29.61,SW,217,0.0,0.0,61,0.00,SCT,,0.00,WeatherDisplay:10.37,2013-04-08 18:50:00,
2013-04-08 11:51:00,53.3,39.8,29.61,SSW,194,0.0,0.0,60,0.00,SCT,,0.00,WeatherDisplay:10.37,2013-04-08 18:51:00,
2013-04-08 11:53:00,53.2,39.7,29.61,SSE,158,0.0,0.0,60,0.00,SCT,,0.00,WeatherDisplay:10.37,2013-04-08 18:53:00,
2013-04-08 11:54:00,53.2,39.7,29.61,SW,236,0.0,0.0,60,0.00,SCT,,0.00,WeatherDisplay:10.37,2013-04-08 18:54:00,
2013-04-08 11:55:00,53.2,40.1,29.61,SSW,203,0.0,0.0,61,0.00,SCT,,0.00,WeatherDisplay:10.37,2013-04-08 18:55:00,
2013-04-08 11:58:00,53.3,40.2,29.61,WSW,245,0.0,0.0,61,0.00,SCT,,0.00,WeatherDisplay:10.37,2013-04-08 18:58:00,
2013-04-08 11:59:00,53.5,40.4,29.61,SSE,149,0.0,0.0,61,0.00,SCT,,0.00,WeatherDisplay:10.37,2013-04-08 18:59:00,
2013-04-08 12:01:00,53.5,40.4,29.61,SW,226,0.0,0.0,61,0.00,BKN,,0.00,WeatherDisplay:10.37,2013-04-08 19:01:00,
2013-04-08 12:02:00,53.6,40.5,29.61,South,176,0.0,0.0,61,0.00,BKN,,0.00,WeatherDisplay:10.37,2013-04-08 19:02:00,
2013-04-08 12:05:00,53.9,39.9,29.61,SW,218,0.0,0.0,59,0.00,BKN,,0.00,WeatherDisplay:10.37,2013-04-08 19:05:00,
2013-04-08 12:07:00,54.1,39.6,29.61,SW,224,0.0,0.0,58,0.00,BKN,,0.00,WeatherDisplay:10.37,2013-04-08 19:07:00,
2013-04-08 12:10:00,54.1,40.1,29.61,South,183,0.0,0.0,59,0.00,BKN,,0.00,WeatherDisplay:10.37,2013-04-08 19:10:00,
2013-04-08 12:14:00,54.2,40.2,29.61,South,172,0.0,0.0,59,0.00,BKN,,0.00,WeatherDisplay:10.37,2013-04-08 19:14:00,
2013-04-08 12:15:00,54.2,40.2,29.61,SW,227,0.0,0.0,59,0.00,BKN,,0.00,WeatherDisplay:10.37,2013-04-08 19:15:00,
2013-04-08 12:16:00,54.2,39.7,29.61,SE,144,0.0,0.0,58,0.00,BKN,,0.00,WeatherDisplay:10.37,2013-04-08 19:16:00,
2013-04-08 12:20:00,54.2,39.7,29.61,ESE,114,0.0,0.0,58,0.00,BKN,,0.00,WeatherDisplay:10.37,2013-04-08 19:20:00,
2013-04-08 12:21:00,54.4,39.9,29.61,SSE,158,0.0,0.0,58,0.00,BKN,,0.00,WeatherDisplay:10.37,2013-04-08 19:21:00,
2013-04-08 12:25:00,54.2,39.3,29.60,South,174,0.0,0.0,57,0.00,BKN,,0.00,WeatherDisplay:10.37,2013-04-08 19:25:00,
2013-04-08 12:26:00,54.2,39.7,29.60,SSE,156,0.0,0.0,58,0.00,BKN,,0.00,WeatherDisplay:10.37,2013-04-08 19:26:00,
2013-04-08 12:27:00,54.2,39.7,29.60,WSW,246,0.0,0.0,58,0.00,BKN,,0.00,WeatherDisplay:10.37,2013-04-08 19:27:00,
2013-04-08 12:32:00,54.4,39.5,29.60,SSW,203,0.0,0.0,57,0.00,BKN,,0.00,WeatherDisplay:10.37,2013-04-08 19:32:00,
2013-04-08 12:34:00,54.2,38.8,29.60,South,186,0.0,0.0,56,0.00,BKN,,0.00,WeatherDisplay:10.37,2013-04-08 19:34:00,
2013-04-08 12:37:00,54.2,39.3,29.60,SW,225,0.0,0.0,57,0.00,BKN,,0.00,WeatherDisplay:10.37,2013-04-08 19:37:00,
2013-04-08 12:39:00,54.2,39.3,29.60,South,169,0.0,0.0,57,0.00,BKN,,0.00,WeatherDisplay:10.37,2013-04-08 19:39:00,
2013-04-08 12:40:00,54.2,39.3,29.60,South,174,0.0,0.0,57,0.00,BKN,,0.00,WeatherDisplay:10.37,2013-04-08 19:40:00,
2013-04-08 12:42:00,54.2,39.3,29.60,South,175,0.0,0.0,57,0.00,BKN,,0.00,WeatherDisplay:10.37,2013-04-08 19:42:00,
2013-04-08 12:43:00,54.2,38.8,29.59,WSW,255,0.0,0.0,56,0.00,BKN,,0.00,WeatherDisplay:10.37,2013-04-08 19:43:00,
2013-04-08 12:45:00,54.2,38.8,29.59,SW,227,0.0,0.0,56,0.00,BKN,,0.00,WeatherDisplay:10.37,2013-04-08 19:45:00,
2013-04-08 12:49:00,54.4,39.0,29.59,WSW,239,0.0,0.0,56,0.00,BKN,,0.00,WeatherDisplay:10.37,2013-04-08 19:49:00,
2013-04-08 12:50:00,54.4,38.6,29.59,South,174,0.0,0.0,55,0.00,BKN,,0.00,WeatherDisplay:10.37,2013-04-08 19:50:00,
2013-04-08 12:52:00,54.5,38.7,29.59,SSW,203,0.0,0.0,55,0.00,BKN,,0.00,WeatherDisplay:10.37,2013-04-08 19:52:00,
2013-04-08 12:53:00,54.5,38.7,29.59,SSW,192,0.0,0.0,55,0.00,BKN,,0.00,WeatherDisplay:10.37,2013-04-08 19:53:00,
2013-04-08 12:54:00,54.4,38.6,29.59,West,271,0.0,0.0,55,0.00,BKN,,0.00,WeatherDisplay:10.37,2013-04-08 19:54:00,
2013-04-08 12:57:00,54.4,38.6,29.59,SW,221,0.0,0.0,55,0.00,BKN,,0.00,WeatherDisplay:10.37,2013-04-08 19:57:00,
2013-04-08 12:58:00,54.4,39.0,29.59,SW,229,0.0,0.0,56,0.00,BKN,,0.00,WeatherDisplay:10.37,2013-04-08 19:58:00,
2013-04-08 12:59:00,54.4,39.5,29.60,SSE,156,0.0,0.0,57,0.00,BKN,,0.00,WeatherDisplay:10.37,2013-04-08 19:59:00,
2013-04-08 13:00:00,54.4,39.5,29.60,SSE,163,0.0,0.0,57,0.00,BKN,,0.00,WeatherDisplay:10.37,2013-04-08 20:00:00,
2013-04-08 13:02:00,54.4,39.5,29.60,SE,143,0.0,0.0,57,0.00,BKN,,0.00,WeatherDisplay:10.37,2013-04-08 20:02:00,
2013-04-08 13:04:00,54.4,40.4,29.61,South,184,0.0,0.0,59,0.00,BKN,,0.00,WeatherDisplay:10.37,2013-04-08 20:04:00,
2013-04-08 13:05:00,54.1,40.1,29.61,South,175,0.0,0.0,59,0.00,BKN,,0.00,WeatherDisplay:10.37,2013-04-08 20:05:00,
2013-04-08 13:06:00,54.1,40.5,29.60,SW,223,0.0,0.0,60,0.00,BKN,,0.00,WeatherDisplay:10.37,2013-04-08 20:06:00,
2013-04-08 13:07:00,53.6,40.5,29.60,SSE,167,0.0,0.0,61,0.00,BKN,,0.00,WeatherDisplay:10.37,2013-04-08 20:07:00,
2013-04-08 13:09:00,53.5,39.9,29.60,SSW,199,0.0,0.0,60,0.00,BKN,,0.00,WeatherDisplay:10.37,2013-04-08 20:09:00,
2013-04-08 13:11:00,53.3,39.8,29.60,SSE,167,0.0,0.0,60,0.00,BKN,,0.00,WeatherDisplay:10.37,2013-04-08 20:11:00,
2013-04-08 13:14:00,52.9,39.8,29.60,SSW,197,0.0,0.0,61,0.00,BKN,,0.00,WeatherDisplay:10.37,2013-04-08 20:14:00,
2013-04-08 13:15:00,52.9,39.8,29.60,SSW,192,0.0,0.0,61,0.00,BKN,,0.00,WeatherDisplay:10.37,2013-04-08 20:15:00,
2013-04-08 13:17:00,52.8,39.3,29.60,South,179,0.0,0.0,60,0.00,BKN,,0.00,WeatherDisplay:10.37,2013-04-08 20:17:00,
2013-04-08 13:19:00,52.6,39.1,29.60,SSW,209,0.0,0.0,60,0.00,BKN,,0.00,WeatherDisplay:10.37,2013-04-08 20:19:00,
2013-04-08 13:22:00,52.6,39.1,29.61,SSE,160,0.0,0.0,60,0.00,BKN,,0.00,WeatherDisplay:10.37,2013-04-08 20:22:00,
2013-04-08 13:24:00,52.6,38.7,29.60,SSW,200,0.0,0.0,59,0.00,BKN,,0.00,WeatherDisplay:10.37,2013-04-08 20:24:00,
2013-04-08 13:27:00,52.5,38.6,29.60,SSW,208,0.0,0.0,59,0.00,BKN,,0.00,WeatherDisplay:10.37,2013-04-08 20:27:00,
2013-04-08 13:29:00,52.5,38.6,29.59,SSE,165,0.0,0.0,59,0.00,BKN,,0.00,WeatherDisplay:10.37,2013-04-08 20:29:00,
2013-04-08 13:32:00,52.5,38.6,29.59,South,169,0.0,0.0,59,0.00,BKN,,0.00,WeatherDisplay:10.37,2013-04-08 20:32:00,
2013-04-08 13:35:00,52.5,38.6,29.59,South,186,0.0,0.0,59,0.00,BKN,,0.00,WeatherDisplay:10.37,2013-04-08 20:35:00,
2013-04-08 13:38:00,52.5,38.6,29.59,South,174,0.0,0.0,59,0.00,BKN,,0.00,WeatherDisplay:10.37,2013-04-08 20:38:00,
2013-04-08 13:41:00,52.6,38.2,29.59,SSE,150,0.0,0.0,58,0.00,BKN,,0.00,WeatherDisplay:10.37,2013-04-08 20:41:00,
2013-04-08 13:42:00,52.6,38.2,29.59,WSW,253,0.0,0.0,58,0.00,BKN,,0.00,WeatherDisplay:10.37,2013-04-08 20:42:00,
2013-04-08 13:44:00,52.5,38.1,29.59,South,188,0.0,0.0,58,0.00,BKN,,0.00,WeatherDisplay:10.37,2013-04-08 20:44:00,
2013-04-08 13:46:00,52.5,37.7,29.59,SW,235,0.0,0.0,57,0.00,BKN,,0.00,WeatherDisplay:10.37,2013-04-08 20:46:00,
2013-04-08 13:49:00,52.5,38.1,29.59,South,173,0.0,0.0,58,0.00,BKN,,0.00,WeatherDisplay:10.37,2013-04-08 20:49:00,
2013-04-08 13:50:00,52.5,38.1,29.59,South,182,0.0,0.0,58,0.00,BKN,,0.00,WeatherDisplay:10.37,2013-04-08 20:50:00,
2013-04-08 13:51:00,52.5,38.6,29.59,WSW,253,0.0,0.0,59,0.00,BKN,,0.00,WeatherDisplay:10.37,2013-04-08 20:51:00,
2013-04-08 13:54:00,52.3,38.4,29.59,South,175,0.0,0.0,59,0.00,BKN,,0.00,WeatherDisplay:10.37,2013-04-08 20:54:00,
2013-04-08 13:56:00,52.3,38.4,29.60,South,191,0.0,0.0,59,0.00,BKN,,0.00,WeatherDisplay:10.37,2013-04-08 20:56:00,
2013-04-08 13:57:00,52.5,38.6,29.60,WSW,252,0.0,0.0,59,0.00,BKN,,0.00,WeatherDisplay:10.37,2013-04-08 20:57:00,
2013-04-08 13:59:00,52.5,38.1,29.59,South,169,0.0,0.0,58,0.00,BKN,,0.00,WeatherDisplay:10.37,2013-04-08 20:59:00,
2013-04-08 14:00:00,52.5,38.6,29.59,South,190,0.0,0.0,59,0.00,BKN,,0.00,WeatherDisplay:10.37,2013-04-08 21:00:00,
2013-04-08 14:02:00,52.5,38.1,29.59,NW,308,0.0,0.0,58,0.00,SCT,,0.00,WeatherDisplay:10.37,2013-04-08 21:02:00,
2013-04-08 14:03:00,52.5,38.1,29.59,South,183,0.0,0.0,58,0.00,SCT,,0.00,WeatherDisplay:10.37,2013-04-08 21:03:00,
2013-04-08 14:05:00,52.6,37.8,29.59,South,179,0.0,0.0,57,0.00,SCT,,0.00,WeatherDisplay:10.37,2013-04-08 21:05:00,
2013-04-08 14:07:00,52.6,38.2,29.59,WSW,240,0.0,0.0,58,0.00,SCT,,0.00,WeatherDisplay:10.37,2013-04-08 21:07:00,
2013-04-08 14:08:00,52.6,37.8,29.59,South,181,0.0,0.0,57,0.00,SCT,,0.00,WeatherDisplay:10.37,2013-04-08 21:08:00,
2013-04-08 14:10:00,52.6,37.8,29.59,South,173,0.0,0.0,57,0.00,SCT,,0.00,WeatherDisplay:10.37,2013-04-08 21:10:00,
2013-04-08 14:12:00,52.6,37.8,29.59,South,179,0.0,0.0,57,0.00,SCT,,0.00,WeatherDisplay:10.37,2013-04-08 21:12:00,
2013-04-08 14:13:00,52.6,38.2,29.59,SSE,153,0.0,0.0,58,0.00,SCT,,0.00,WeatherDisplay:10.37,2013-04-08 21:13:00,
2013-04-08 14:14:00,52.6,38.2,29.59,West,260,0.0,0.0,58,0.00,SCT,,0.00,WeatherDisplay:10.37,2013-04-08 21:14:00,
2013-04-08 14:17:00,52.6,37.3,29.59,South,184,0.0,0.0,56,0.00,SCT,,0.00,WeatherDisplay:10.37,2013-04-08 21:17:00,
2013-04-08 14:18:00,52.6,37.3,29.59,South,174,0.0,0.0,56,0.00,SCT,,0.00,WeatherDisplay:10.37,2013-04-08 21:18:00,
2013-04-08 14:19:00,52.6,36.9,29.59,SSE,148,0.0,0.0,55,0.00,SCT,,0.00,WeatherDisplay:10.37,2013-04-08 21:19:00,
2013-04-08 14:23:00,52.8,37.5,29.59,South,169,0.0,0.0,56,0.00,SCT,,0.00,WeatherDisplay:10.37,2013-04-08 21:23:00,
2013-04-08 14:25:00,52.8,37.6,29.59,South,188,0.0,0.0,56,0.00,SCT,,0.00,WeatherDisplay:10.37,2013-04-08 21:25:00,
2013-04-08 14:26:00,52.9,38.1,29.58,SSW,207,0.0,0.0,57,0.00,SCT,,0.00,WeatherDisplay:10.37,2013-04-08 21:26:00,
2013-04-08 14:28:00,53.1,38.3,29.58,SSE,154,0.0,0.0,57,0.00,SCT,,0.00,WeatherDisplay:10.37,2013-04-08 21:28:00,
2013-04-08 14:30:00,53.2,37.9,29.58,SSW,203,0.0,0.0,56,0.00,SCT,,0.00,WeatherDisplay:10.37,2013-04-08 21:30:00,
2013-04-08 14:34:00,53.3,37.5,29.58,South,174,0.0,0.0,55,0.00,SCT,,0.00,WeatherDisplay:10.37,2013-04-08 21:34:00,
2013-04-08 14:36:00,53.5,37.7,29.58,South,172,0.0,0.0,55,0.00,SCT,,0.00,WeatherDisplay:10.37,2013-04-08 21:36:00,
2013-04-08 14:40:00,53.6,37.3,29.58,SSW,193,0.0,0.0,54,0.00,SCT,,0.00,WeatherDisplay:10.37,2013-04-08 21:40:00,
2013-04-08 14:43:00,53.8,37.5,29.59,SW,224,0.0,0.0,54,0.00,SCT,,0.00,WeatherDisplay:10.37,2013-04-08 21:43:00,
2013-04-08 14:44:00,53.8,37.5,29.59,South,175,0.0,0.0,54,0.00,SCT,,0.00,WeatherDisplay:10.37,2013-04-08 21:44:00,
2013-04-08 14:47:00,53.6,36.4,29.58,South,181,0.0,0.0,52,0.00,SCT,,0.00,WeatherDisplay:10.37,2013-04-08 21:47:00,
2013-04-08 14:48:00,53.5,36.3,29.59,South,174,0.0,0.0,52,0.00,SCT,,0.00,WeatherDisplay:10.37,2013-04-08 21:48:00,
2013-04-08 14:49:00,53.5,36.3,29.59,SE,141,0.0,0.0,52,0.00,SCT,,0.00,WeatherDisplay:10.37,2013-04-08 21:49:00,
2013-04-08 14:53:00,53.3,35.1,29.59,SW,221,0.0,0.0,50,0.00,SCT,,0.00,WeatherDisplay:10.37,2013-04-08 21:53:00,
2013-04-08 14:55:00,53.3,35.1,29.59,SSW,201,0.0,0.0,50,0.00,SCT,,0.00,WeatherDisplay:10.37,2013-04-08 21:55:00,
2013-04-08 14:56:00,53.3,34.6,29.60,WNW,286,0.0,0.0,49,0.00,SCT,,0.00,WeatherDisplay:10.37,2013-04-08 21:56:00,
2013-04-08 14:59:00,53.2,35.0,29.59,SW,224,0.0,0.0,50,0.00,SCT,,0.00,WeatherDisplay:10.37,2013-04-08 21:59:00,
2013-04-08 15:00:00,53.2,34.5,29.59,South,169,0.0,0.0,49,0.00,SCT,,0.00,WeatherDisplay:10.37,2013-04-08 22:00:00,
2013-04-08 15:01:00,53.2,35.0,29.59,South,183,0.0,0.0,50,0.00,BKN,,0.00,WeatherDisplay:10.37,2013-04-08 22:01:00,
2013-04-08 15:03:00,53.1,34.9,29.59,WSW,257,0.0,0.0,50,0.00,BKN,,0.00,WeatherDisplay:10.37,2013-04-08 22:03:00,
2013-04-08 15:05:00,53.1,34.9,29.59,West,259,0.0,0.0,50,0.00,BKN,,0.00,WeatherDisplay:10.37,2013-04-08 22:05:00,
2013-04-08 15:06:00,53.1,35.4,29.60,SSE,156,0.0,0.0,51,0.00,BKN,,0.00,WeatherDisplay:10.37,2013-04-08 22:06:00,
2013-04-08 15:08:00,53.1,34.9,29.60,SSE,164,0.0,0.0,50,0.00,BKN,,0.00,WeatherDisplay:10.37,2013-04-08 22:08:00,
2013-04-08 15:11:00,53.1,35.4,29.60,SSE,160,0.0,0.0,51,0.00,BKN,,0.00,WeatherDisplay:10.37,2013-04-08 22:11:00,
2013-04-08 15:13:00,53.1,34.9,29.60,SSE,162,0.0,0.0,50,0.00,BKN,,0.00,WeatherDisplay:10.37,2013-04-08 22:13:00,
2013-04-08 15:14:00,53.1,34.9,29.60,South,178,0.0,0.0,50,0.00,BKN,,0.00,WeatherDisplay:10.37,2013-04-08 22:14:00,
2013-04-08 15:18:00,53.1,35.4,29.60,West,261,0.0,0.0,51,0.00,BKN,,0.00,WeatherDisplay:10.37,2013-04-08 22:18:00,
2013-04-08 15:19:00,53.1,34.9,29.60,SW,224,0.0,0.0,50,0.00,BKN,,0.00,WeatherDisplay:10.37,2013-04-08 22:19:00,
2013-04-08 15:20:00,53.1,34.9,29.60,South,191,0.0,0.0,50,0.00,BKN,,0.00,WeatherDisplay:10.37,2013-04-08 22:20:00,
2013-04-08 15:24:00,53.2,35.0,29.60,South,181,0.0,0.0,50,0.00,BKN,,0.00,WeatherDisplay:10.37,2013-04-08 22:24:00,
2013-04-08 15:26:00,53.2,35.5,29.60,SSW,206,0.0,0.0,51,0.00,BKN,,0.00,WeatherDisplay:10.37,2013-04-08 22:26:00,
2013-04-08 15:30:00,53.2,35.5,29.60,South,191,0.0,0.0,51,0.00,BKN,,0.00,WeatherDisplay:10.37,2013-04-08 22:30:00,
2013-04-08 15:31:00,53.2,35.0,29.60,South,184,0.0,0.0,50,0.00,BKN,,0.00,WeatherDisplay:10.37,2013-04-08 22:31:00,
2013-04-08 15:32:00,53.2,35.0,29.60,South,169,0.0,0.0,50,0.00,BKN,,0.00,WeatherDisplay:10.37,2013-04-08 22:32:00,
2013-04-08 15:34:00,53.1,34.9,29.60,West,264,0.0,0.0,50,0.00,BKN,,0.00,WeatherDisplay:10.37,2013-04-08 22:34:00,
2013-04-08 15:36:00,53.2,35.0,29.60,WSW,254,0.0,0.0,50,0.00,BKN,,0.00,WeatherDisplay:10.37,2013-04-08 22:36:00,
2013-04-08 15:37:00,53.2,35.0,29.60,South,169,0.0,0.0,50,0.00,BKN,,0.00,WeatherDisplay:10.37,2013-04-08 22:37:00,
2013-04-08 15:41:00,53.2,35.5,29.60,WSW,252,0.0,0.0,51,0.00,BKN,,0.00,WeatherDisplay:10.37,2013-04-08 22:41:00,
2013-04-08 15:42:00,53.2,35.5,29.60,SW,229,0.0,0.0,51,0.00,BKN,,0.00,WeatherDisplay:10.37,2013-04-08 22:42:00,
2013-04-08 15:46:00,52.9,35.2,29.60,WSW,237,0.0,0.0,51,0.00,BKN,,0.00,WeatherDisplay:10.37,2013-04-08 22:46:00,
2013-04-08 15:47:00,52.9,35.2,29.60,SW,225,0.0,0.0,51,0.00,BKN,,0.00,WeatherDisplay:10.37,2013-04-08 22:47:00,
2013-04-08 15:50:00,52.8,35.2,29.60,South,170,0.0,0.0,51,0.00,BKN,,0.00,WeatherDisplay:10.37,2013-04-08 22:50:00,
2013-04-08 15:52:00,52.8,35.6,29.60,SSE,165,0.0,0.0,52,0.00,BKN,,0.00,WeatherDisplay:10.37,2013-04-08 22:52:00,
2013-04-08 15:53:00,52.6,35.9,29.60,SSE,154,0.0,0.0,53,0.00,BKN,,0.00,WeatherDisplay:10.37,2013-04-08 22:53:00,
2013-04-08 15:55:00,52.6,35.9,29.60,SSW,192,0.0,0.0,53,0.00,BKN,,0.00,WeatherDisplay:10.37,2013-04-08 22:55:00,
2013-04-08 15:57:00,52.5,36.3,29.60,SSE,165,0.0,0.0,54,0.00,BKN,,0.00,WeatherDisplay:10.37,2013-04-08 22:57:00,
2013-04-08 15:58:00,52.5,36.3,29.60,SSE,165,0.0,0.0,54,0.00,BKN,,0.00,WeatherDisplay:10.37,2013-04-08 22:58:00,
2013-04-08 15:59:00,52.5,36.8,29.60,SSW,200,0.0,0.0,55,0.00,BKN,,0.00,WeatherDisplay:10.37,2013-04-08 22:59:00,
2013-04-08 16:00:00,52.5,36.8,29.60,South,190,0.0,0.0,55,0.00,BKN,,0.00,WeatherDisplay:10.37,2013-04-08 23:00:00,
2013-04-08 16:03:00,52.3,37.1,29.60,South,174,0.0,0.0,56,0.00,BKN,,0.00,WeatherDisplay:10.37,2013-04-08 23:03:00,
2013-04-08 16:04:00,52.3,37.5,29.60,South,189,0.0,0.0,57,0.00,BKN,,0.00,WeatherDisplay:10.37,2013-04-08 23:04:00,
2013-04-08 16:05:00,52.3,37.5,29.60,SW,219,0.0,0.0,57,0.00,BKN,,0.00,WeatherDisplay:10.37,2013-04-08 23:05:00,
2013-04-08 16:09:00,52.2,38.7,29.61,South,179,0.0,0.0,60,0.00,BKN,,0.00,WeatherDisplay:10.37,2013-04-08 23:09:00,
2013-04-08 16:11:00,52.0,39.4,29.61,SSE,165,0.0,0.0,62,0.00,BKN,,0.01,WeatherDisplay:10.37,2013-04-08 23:11:00,
2013-04-08 16:14:00,51.7,39.9,29.61,South,174,0.0,0.0,64,0.01,RA,,0.01,WeatherDisplay:10.37,2013-04-08 23:14:00,
2013-04-08 16:15:00,51.6,39.8,29.61,South,174,0.0,0.0,64,0.01,RA,,0.01,WeatherDisplay:10.37,2013-04-08 23:15:00,
2013-04-08 16:16:00,51.6,40.6,29.61,South,174,0.0,0.0,66,0.01,RA,,0.01,WeatherDisplay:10.37,2013-04-08 23:16:00,
2013-04-08 16:20:00,51.3,40.7,29.61,South,181,0.0,0.0,67,0.02,RA,,0.02,WeatherDisplay:10.37,2013-04-08 23:20:00,
2013-04-08 16:22:00,51.1,40.1,29.62,South,174,0.0,0.0,66,0.02,RA,,0.02,WeatherDisplay:10.37,2013-04-08 23:22:00,
2013-04-08 16:24:00,51.0,40.8,29.62,South,174,0.0,0.0,68,0.02,RA,,0.03,WeatherDisplay:10.37,2013-04-08 23:24:00,
2013-04-08 16:25:00,51.0,41.2,29.61,South,174,0.0,0.0,69,0.03,RA,,0.03,WeatherDisplay:10.37,2013-04-08 23:25:00,
2013-04-08 16:27:00,51.0,41.6,29.61,South,174,0.0,0.0,70,0.03,RA,,0.03,WeatherDisplay:10.37,2013-04-08 23:27:00,
2013-04-08 16:30:00,50.8,41.7,29.61,North,4,0.0,0.0,71,0.03,RA,,0.03,WeatherDisplay:10.37,2013-04-08 23:30:00,
2013-04-08 16:31:00,50.8,42.1,29.61,ENE,78,0.0,0.0,72,0.03,RA,,0.03,WeatherDisplay:10.37,2013-04-08 23:31:00,
2013-04-08 16:36:00,50.7,42.0,29.62,ENE,78,0.0,0.0,72,0.03,BKN,,0.03,WeatherDisplay:10.37,2013-04-08 23:36:00,
2013-04-08 16:37:00,50.5,42.2,29.62,ENE,78,0.0,0.0,73,0.03,BKN,,0.03,WeatherDisplay:10.37,2013-04-08 23:37:00,
2013-04-08 16:41:00,50.4,42.4,29.62,ENE,72,0.0,0.0,74,0.03,BKN,,0.03,WeatherDisplay:10.37,2013-04-08 23:41:00,
2013-04-08 16:42:00,50.2,42.2,29.62,ENE,72,0.0,0.0,74,0.03,BKN,,0.03,WeatherDisplay:10.37,2013-04-08 23:42:00,
2013-04-08 16:43:00,50.2,42.2,29.62,ENE,71,0.0,0.0,74,0.03,BKN,,0.03,WeatherDisplay:10.37,2013-04-08 23:43:00,
2013-04-08 16:47:00,50.1,42.8,29.62,East,89,0.0,0.0,76,0.03,BKN,,0.03,WeatherDisplay:10.37,2013-04-08 23:47:00,
2013-04-08 16:48:00,49.9,42.6,29.62,East,83,0.0,0.0,76,0.03,BKN,,0.03,WeatherDisplay:10.37,2013-04-08 23:48:00,
2013-04-08 16:50:00,49.9,42.6,29.62,ENE,69,0.0,0.0,76,0.03,BKN,,0.03,WeatherDisplay:10.37,2013-04-08 23:50:00,
2013-04-08 16:52:00,49.8,42.5,29.62,ENE,61,0.0,0.0,76,0.03,BKN,,0.03,WeatherDisplay:10.37,2013-04-08 23:52:00,
2013-04-08 16:53:00,49.8,42.5,29.62,ENE,61,0.0,0.0,76,0.03,BKN,,0.03,WeatherDisplay:10.37,2013-04-08 23:53:00,
2013-04-08 16:56:00,49.6,42.3,29.63,East,79,0.0,0.0,76,0.03,BKN,,0.03,WeatherDisplay:10.37,2013-04-08 23:56:00,
2013-04-08 16:57:00,49.6,42.3,29.63,NE,53,0.0,0.0,76,0.03,BKN,,0.03,WeatherDisplay:10.37,2013-04-08 23:57:00,
2013-04-08 16:59:00,49.6,42.3,29.62,NE,54,0.0,0.0,76,0.03,BKN,,0.03,WeatherDisplay:10.37,2013-04-08 23:59:00,
2013-04-08 17:01:00,49.6,42.3,29.62,ENE,66,2.3,2.3,76,0.03,BKN,,0.03,WeatherDisplay:10.37,2013-04-09 00:01:00,
2013-04-08 17:02:00,49.6,42.3,29.62,ENE,72,3.5,3.5,76,0.03,BKN,,0.03,WeatherDisplay:10.37,2013-04-09 00:02:00,
2013-04-08 17:04:00,49.6,42.3,29.62,East,100,1.1,0.0,76,0.03,BKN,,0.03,WeatherDisplay:10.37,2013-04-09 00:04:00,
2013-04-08 17:06:00,49.6,42.3,29.62,East,82,0.0,0.0,76,0.03,BKN,,0.03,WeatherDisplay:10.37,2013-04-09 00:06:00,
2013-04-08 17:07:00,49.6,42.3,29.62,East,82,0.0,0.0,76,0.03,BKN,,0.03,WeatherDisplay:10.37,2013-04-09 00:07:00,
2013-04-08 17:09:00,49.8,42.9,29.62,East,93,0.0,0.0,77,0.03,BKN,,0.03,WeatherDisplay:10.37,2013-04-09 00:09:00,
2013-04-08 17:11:00,49.8,42.5,29.62,ENE,74,0.0,0.0,76,0.03,BKN,,0.03,WeatherDisplay:10.37,2013-04-09 00:11:00,
2013-04-08 17:12:00,49.8,42.5,29.62,ENE,77,0.0,0.0,76,0.02,BKN,,0.03,WeatherDisplay:10.37,2013-04-09 00:12:00,
2013-04-08 17:14:00,49.9,43.0,29.62,ENE,65,0.0,0.0,77,0.02,BKN,,0.03,WeatherDisplay:10.37,2013-04-09 00:14:00,
2013-04-08 17:15:00,49.9,42.6,29.62,East,86,0.0,0.0,76,0.02,BKN,,0.03,WeatherDisplay:10.37,2013-04-09 00:15:00,
2013-04-08 17:17:00,49.8,42.9,29.62,ENE,77,0.0,0.0,77,0.02,BKN,,0.03,WeatherDisplay:10.37,2013-04-09 00:17:00,
2013-04-08 17:19:00,49.8,42.5,29.62,SE,125,0.0,0.0,76,0.01,BKN,,0.03,WeatherDisplay:10.37,2013-04-09 00:19:00,
2013-04-08 17:20:00,49.8,42.5,29.62,East,95,0.0,0.0,76,0.01,BKN,,0.03,WeatherDisplay:10.37,2013-04-09 00:20:00,
2013-04-08 17:21:00,49.8,42.2,29.62,ENE,76,0.0,0.0,75,0.01,BKN,,0.03,WeatherDisplay:10.37,2013-04-09 00:21:00,
2013-04-08 17:22:00,49.8,42.5,29.62,East,86,0.0,0.0,76,0.01,BKN,,0.03,WeatherDisplay:10.37,2013-04-09 00:22:00,
2013-04-08 17:24:00,49.8,42.5,29.62,East,88,0.0,0.0,76,0.01,BKN,,0.03,WeatherDisplay:10.37,2013-04-09 00:24:00,
2013-04-08 17:27:00,49.8,42.5,29.62,East,89,0.0,0.0,76,0.00,BKN,,0.03,WeatherDisplay:10.37,2013-04-09 00:27:00,
2013-04-08 17:28:00,49.8,42.5,29.62,ENE,71,0.0,0.0,76,0.00,BKN,,0.03,WeatherDisplay:10.37,2013-04-09 00:28:00,
2013-04-08 17:31:00,49.9,43.0,29.62,East,85,0.0,0.0,77,0.00,BKN,,0.03,WeatherDisplay:10.37,2013-04-09 00:31:00,
2013-04-08 17:33:00,49.9,43.0,29.62,ENE,70,0.0,0.0,77,0.00,BKN,,0.03,WeatherDisplay:10.37,2013-04-09 00:33:00,
2013-04-08 17:34:00,50.1,42.8,29.62,NE,53,0.0,0.0,76,0.00,BKN,,0.03,WeatherDisplay:10.37,2013-04-09 00:34:00,
2013-04-08 17:39:00,50.4,42.8,29.62,ESE,105,0.0,0.0,75,0.00,BKN,,0.03,WeatherDisplay:10.37,2013-04-09 00:39:00,
2013-04-08 17:40:00,50.5,43.2,29.62,East,89,0.0,0.0,76,0.00,BKN,,0.03,WeatherDisplay:10.37,2013-04-09 00:40:00,
2013-04-08 17:41:00,50.5,43.2,29.62,ENE,63,0.0,0.0,76,0.00,BKN,,0.03,WeatherDisplay:10.37,2013-04-09 00:41:00,
2013-04-08 17:42:00,50.7,43.1,29.62,SSE,155,0.0,0.0,75,0.00,BKN,,0.03,WeatherDisplay:10.37,2013-04-09 00:42:00,
2013-04-08 17:45:00,50.8,42.8,29.62,ENE,75,0.0,0.0,74,0.00,BKN,,0.03,WeatherDisplay:10.37,2013-04-09 00:45:00,
2013-04-08 17:46:00,51.0,43.0,29.62,East,99,0.0,0.0,74,0.00,BKN,,0.03,WeatherDisplay:10.37,2013-04-09 00:46:00,
2013-04-08 17:47:00,51.0,42.6,29.62,East,99,0.0,0.0,73,0.00,BKN,,0.03,WeatherDisplay:10.37,2013-04-09 00:47:00,
2013-04-08 17:48:00,51.0,42.6,29.62,East,92,0.0,0.0,73,0.00,BKN,,0.03,WeatherDisplay:10.37,2013-04-09 00:48:00,
2013-04-08 17:52:00,51.0,42.3,29.62,East,86,0.0,0.0,72,0.00,BKN,,0.03,WeatherDisplay:10.37,2013-04-09 00:52:00,
2013-04-08 17:53:00,51.0,42.3,29.62,East,96,0.0,0.0,72,0.00,BKN,,0.03,WeatherDisplay:10.37,2013-04-09 00:53:00,
2013-04-08 17:54:00,51.0,42.3,29.62,East,96,0.0,0.0,72,0.00,BKN,,0.03,WeatherDisplay:10.37,2013-04-09 00:54:00,
2013-04-08 17:55:00,51.0,42.3,29.62,East,96,0.0,0.0,72,0.00,BKN,,0.03,WeatherDisplay:10.37,2013-04-09 00:55:00,
2013-04-08 17:58:00,51.1,42.4,29.62,East,86,0.0,0.0,72,0.00,BKN,,0.03,WeatherDisplay:10.37,2013-04-09 00:58:00,
2013-04-08 17:59:00,51.1,42.4,29.62,East,96,0.0,0.0,72,0.00,BKN,,0.03,WeatherDisplay:10.37,2013-04-09 00:59:00,
2013-04-08 18:02:00,51.3,42.2,29.63,NNE,32,0.0,0.0,71,0.00,BKN,,0.03,WeatherDisplay:10.37,2013-04-09 01:02:00,
2013-04-08 18:03:00,51.3,42.2,29.63,NE,34,0.0,0.0,71,0.00,BKN,,0.03,WeatherDisplay:10.37,2013-04-09 01:03:00,
2013-04-08 18:05:00,51.4,42.3,29.63,ENE,77,0.0,0.0,71,0.00,BKN,,0.03,WeatherDisplay:10.37,2013-04-09 01:05:00,
2013-04-08 18:07:00,51.4,41.9,29.63,ESE,119,0.0,0.0,70,0.00,BKN,,0.03,WeatherDisplay:10.37,2013-04-09 01:07:00,
2013-04-08 18:08:00,51.6,42.1,29.63,East,93,0.0,0.0,70,0.00,BKN,,0.03,WeatherDisplay:10.37,2013-04-09 01:08:00,
2013-04-08 18:10:00,51.6,42.1,29.63,East,89,0.0,0.0,70,0.00,BKN,,0.03,WeatherDisplay:10.37,2013-04-09 01:10:00,
2013-04-08 18:13:00,51.7,42.2,29.62,South,176,0.0,0.0,70,0.00,BKN,,0.03,WeatherDisplay:10.37,2013-04-09 01:13:00,
2013-04-08 18:14:00,51.7,42.2,29.63,South,174,0.0,0.0,70,0.00,BKN,,0.03,WeatherDisplay:10.37,2013-04-09 01:14:00,
2013-04-08 18:15:00,51.9,42.4,29.63,East,83,0.0,0.0,70,0.00,BKN,,0.03,WeatherDisplay:10.37,2013-04-09 01:15:00,
2013-04-08 18:19:00,51.9,41.7,29.63,ENE,77,0.0,0.0,68,0.00,BKN,,0.03,WeatherDisplay:10.37,2013-04-09 01:19:00,
2013-04-08 18:20:00,51.9,41.7,29.63,ENE,77,0.0,0.0,68,0.00,BKN,,0.03,WeatherDisplay:10.37,2013-04-09 01:20:00,
2013-04-08 18:21:00,51.9,41.7,29.63,ENE,77,0.0,0.0,68,0.00,BKN,,0.03,WeatherDisplay:10.37,2013-04-09 01:21:00,
2013-04-08 18:24:00,52.0,42.1,29.63,ENE,77,0.0,0.0,69,0.00,BKN,,0.03,WeatherDisplay:10.37,2013-04-09 01:24:00,
2013-04-08 18:25:00,52.0,42.1,29.63,ENE,77,0.0,0.0,69,0.00,BKN,,0.03,WeatherDisplay:10.37,2013-04-09 01:25:00,
2013-04-08 18:26:00,52.0,42.1,29.63,ENE,77,0.0,0.0,69,0.00,BKN,,0.03,WeatherDisplay:10.37,2013-04-09 01:26:00,
2013-04-08 18:28:00,52.0,41.8,29.63,ENE,77,0.0,0.0,68,0.00,BKN,,0.03,WeatherDisplay:10.37,2013-04-09 01:28:00,
2013-04-08 18:29:00,52.0,41.8,29.63,NW,311,0.0,0.0,68,0.00,BKN,,0.03,WeatherDisplay:10.37,2013-04-09 01:29:00,
2013-04-08 18:30:00,52.0,41.4,29.63,SSW,206,0.0,0.0,67,0.00,BKN,,0.03,WeatherDisplay:10.37,2013-04-09 01:30:00,
2013-04-08 18:33:00,51.9,40.5,29.63,South,174,0.0,0.0,65,0.00,BKN,,0.03,WeatherDisplay:10.37,2013-04-09 01:33:00,
2013-04-08 18:34:00,51.9,40.5,29.63,South,174,0.0,0.0,65,0.00,BKN,,0.03,WeatherDisplay:10.37,2013-04-09 01:34:00,
2013-04-08 18:35:00,51.9,40.5,29.63,South,174,0.0,0.0,65,0.00,BKN,,0.03,WeatherDisplay:10.37,2013-04-09 01:35:00,
2013-04-08 18:37:00,51.9,40.9,29.63,South,174,0.0,0.0,66,0.00,BKN,,0.03,WeatherDisplay:10.37,2013-04-09 01:37:00,
2013-04-08 18:42:00,51.7,39.9,29.63,SSE,154,0.0,0.0,64,0.00,BKN,,0.03,WeatherDisplay:10.37,2013-04-09 01:42:00,
2013-04-08 18:43:00,51.7,39.9,29.63,South,174,0.0,0.0,64,0.00,BKN,,0.03,WeatherDisplay:10.37,2013-04-09 01:43:00,
2013-04-08 18:46:00,51.7,40.3,29.63,South,172,0.0,0.0,65,0.00,BKN,,0.03,WeatherDisplay:10.37,2013-04-09 01:46:00,
2013-04-08 18:47:00,51.7,40.3,29.63,South,172,0.0,0.0,65,0.00,BKN,,0.03,WeatherDisplay:10.37,2013-04-09 01:47:00,
2013-04-08 18:49:00,51.6,40.2,29.63,SE,127,0.0,0.0,65,0.00,BKN,,0.03,WeatherDisplay:10.37,2013-04-09 01:49:00,
2013-04-08 18:51:00,51.6,40.2,29.63,SE,136,0.0,0.0,65,0.00,BKN,,0.03,WeatherDisplay:10.37,2013-04-09 01:51:00,
2013-04-08 18:53:00,51.6,40.2,29.63,SE,136,0.0,0.0,65,0.00,BKN,,0.03,WeatherDisplay:10.37,2013-04-09 01:53:00,
2013-04-08 18:55:00,51.6,40.2,29.63,SE,136,0.0,0.0,65,0.00,BKN,,0.03,WeatherDisplay:10.37,2013-04-09 01:55:00,
2013-04-08 18:56:00,51.4,40.0,29.63,SE,136,0.0,0.0,65,0.00,BKN,,0.03,WeatherDisplay:10.37,2013-04-09 01:56:00,
2013-04-08 18:58:00,51.4,40.0,29.64,SE,136,0.0,0.0,65,0.00,BKN,,0.03,WeatherDisplay:10.37,2013-04-09 01:58:00,
2013-04-08 19:00:00,51.4,40.0,29.64,SE,136,0.0,0.0,65,0.00,BKN,,0.03,WeatherDisplay:10.37,2013-04-09 02:00:00,
2013-04-08 19:02:00,51.3,39.9,29.64,SE,136,0.0,0.0,65,0.00,CLR,,0.03,WeatherDisplay:10.37,2013-04-09 02:02:00,
2013-04-08 19:05:00,51.3,40.3,29.65,SE,136,0.0,0.0,66,0.00,CLR,,0.03,WeatherDisplay:10.37,2013-04-09 02:05:00,
2013-04-08 19:07:00,51.1,40.1,29.65,SE,136,0.0,0.0,66,0.00,CLR,,0.03,WeatherDisplay:10.37,2013-04-09 02:07:00,
2013-04-08 19:10:00,51.1,40.1,29.65,ESE,121,0.0,0.0,66,0.00,CLR,,0.03,WeatherDisplay:10.37,2013-04-09 02:10:00,
2013-04-08 19:13:00,51.0,40.0,29.65,East,86,0.0,0.0,66,0.00,CLR,,0.03,WeatherDisplay:10.37,2013-04-09 02:13:00,
2013-04-08 19:16:00,51.0,40.4,29.65,SSE,150,0.0,0.0,67,0.00,CLR,,0.03,WeatherDisplay:10.37,2013-04-09 02:16:00,
2013-04-08 19:17:00,51.0,40.0,29.65,SSE,150,0.0,0.0,66,0.00,CLR,,0.03,WeatherDisplay:10.37,2013-04-09 02:17:00,
2013-04-08 19:19:00,50.8,39.8,29.66,SSE,150,0.0,0.0,66,0.00,CLR,,0.03,WeatherDisplay:10.37,2013-04-09 02:19:00,
2013-04-08 19:21:00,50.8,39.8,29.66,SSE,167,0.0,0.0,66,0.00,CLR,,0.03,WeatherDisplay:10.37,2013-04-09 02:21:00,
2013-04-08 19:23:00,50.7,39.7,29.66,South,171,0.0,0.0,66,0.00,CLR,,0.03,WeatherDisplay:10.37,2013-04-09 02:23:00,
2013-04-08 19:25:00,50.7,39.7,29.66,South,171,0.0,0.0,66,0.00,CLR,,0.03,WeatherDisplay:10.37,2013-04-09 02:25:00,
2013-04-08 19:28:00,50.5,39.9,29.65,South,171,0.0,0.0,67,0.00,CLR,,0.03,WeatherDisplay:10.37,2013-04-09 02:28:00,
2013-04-08 19:30:00,50.5,39.9,29.66,South,170,0.0,0.0,67,0.00,CLR,,0.03,WeatherDisplay:10.37,2013-04-09 02:30:00,
2013-04-08 19:33:00,50.4,39.9,29.66,South,171,0.0,0.0,67,0.00,CLR,,0.03,WeatherDisplay:10.37,2013-04-09 02:33:00,
2013-04-08 19:34:00,50.4,39.9,29.66,South,171,0.0,0.0,67,0.00,CLR,,0.03,WeatherDisplay:10.37,2013-04-09 02:34:00,
2013-04-08 19:35:00,50.4,39.9,29.66,South,171,0.0,0.0,67,0.00,CLR,,0.03,WeatherDisplay:10.37,2013-04-09 02:35:00,
2013-04-08 19:39:00,50.2,40.0,29.67,South,171,0.0,0.0,68,0.00,CLR,,0.03,WeatherDisplay:10.37,2013-04-09 02:39:00,
2013-04-08 19:40:00,50.2,39.7,29.67,South,171,0.0,0.0,67,0.00,CLR,,0.03,WeatherDisplay:10.37,2013-04-09 02:40:00,
2013-04-08 19:41:00,50.2,40.0,29.67,South,171,0.0,0.0,68,0.00,CLR,,0.03,WeatherDisplay:10.37,2013-04-09 02:41:00,
2013-04-08 19:42:00,50.2,40.0,29.67,South,171,0.0,0.0,68,0.00,CLR,,0.03,WeatherDisplay:10.37,2013-04-09 02:42:00,
2013-04-08 19:45:00,50.1,39.9,29.67,SSE,167,0.0,0.0,68,0.00,CLR,,0.03,WeatherDisplay:10.37,2013-04-09 02:45:00,
2013-04-08 19:48:00,50.1,39.9,29.67,ESE,112,0.0,0.0,68,0.00,CLR,,0.03,WeatherDisplay:10.37,2013-04-09 02:48:00,
2013-04-08 19:50:00,50.1,39.9,29.67,SE,133,0.0,0.0,68,0.00,CLR,,0.03,WeatherDisplay:10.37,2013-04-09 02:50:00,
2013-04-08 19:53:00,49.9,39.8,29.67,South,181,0.0,0.0,68,0.00,CLR,,0.03,WeatherDisplay:10.37,2013-04-09 02:53:00,
2013-04-08 19:54:00,49.9,39.8,29.67,South,181,0.0,0.0,68,0.00,CLR,,0.03,WeatherDisplay:10.37,2013-04-09 02:54:00,
2013-04-08 19:58:00,49.8,40.0,29.67,South,181,0.0,0.0,69,0.00,CLR,,0.03,WeatherDisplay:10.37,2013-04-09 02:58:00,
2013-04-08 19:59:00,49.8,40.0,29.68,South,181,0.0,0.0,69,0.00,CLR,,0.03,WeatherDisplay:10.37,2013-04-09 02:59:00,
2013-04-08 20:00:00,49.8,40.0,29.68,South,176,0.0,0.0,69,0.00,CLR,,0.03,WeatherDisplay:10.37,2013-04-09 03:00:00,
2013-04-08 20:03:00,49.6,39.8,29.68,SE,138,0.0,0.0,69,0.00,CLR,,0.03,WeatherDisplay:10.37,2013-04-09 03:03:00,
2013-04-08 20:07:00,49.6,39.8,29.68,South,174,0.0,0.0,69,0.00,CLR,,0.03,WeatherDisplay:10.37,2013-04-09 03:07:00,
2013-04-08 20:08:00,49.6,39.8,29.68,South,177,0.0,0.0,69,0.00,CLR,,0.03,WeatherDisplay:10.37,2013-04-09 03:08:00,
2013-04-08 20:09:00,49.6,39.8,29.68,South,177,0.0,0.0,69,0.00,CLR,,0.03,WeatherDisplay:10.37,2013-04-09 03:09:00,
2013-04-08 20:12:00,49.5,39.7,29.68,South,177,0.0,0.0,69,0.00,CLR,,0.03,WeatherDisplay:10.37,2013-04-09 03:12:00,
2013-04-08 20:14:00,49.5,39.7,29.68,SSE,158,0.0,0.0,69,0.00,CLR,,0.03,WeatherDisplay:10.37,2013-04-09 03:14:00,
2013-04-08 20:17:00,49.5,39.7,29.69,SSE,158,0.0,0.0,69,0.00,CLR,,0.03,WeatherDisplay:10.37,2013-04-09 03:17:00,
2013-04-08 20:19:00,49.5,39.7,29.69,SSE,158,0.0,0.0,69,0.00,CLR,,0.03,WeatherDisplay:10.37,2013-04-09 03:19:00,
2013-04-08 20:20:00,49.4,39.7,29.69,SSE,158,0.0,0.0,69,0.00,CLR,,0.03,WeatherDisplay:10.37,2013-04-09 03:20:00,
2013-04-08 20:21:00,49.4,39.7,29.69,SSE,158,0.0,0.0,69,0.00,CLR,,0.03,WeatherDisplay:10.37,2013-04-09 03:21:00,
2013-04-08 20:22:00,49.4,40.0,29.69,SSE,158,0.0,0.0,70,0.00,CLR,,0.03,WeatherDisplay:10.37,2013-04-09 03:22:00,
2013-04-08 20:25:00,49.2,39.8,29.69,SSE,158,0.0,0.0,70,0.00,CLR,,0.03,WeatherDisplay:10.37,2013-04-09 03:25:00,
2013-04-08 20:26:00,49.2,39.8,29.69,SSE,158,0.0,0.0,70,0.00,CLR,,0.03,WeatherDisplay:10.37,2013-04-09 03:26:00,
2013-04-08 20:28:00,49.1,39.7,29.69,SSE,158,0.0,0.0,70,0.00,CLR,,0.03,WeatherDisplay:10.37,2013-04-09 03:28:00,
2013-04-08 20:31:00,48.9,39.5,29.69,SSE,158,0.0,0.0,70,0.00,CLR,,0.03,WeatherDisplay:10.37,2013-04-09 03:31:00,
2013-04-08 20:32:00,48.9,39.5,29.69,SSE,158,0.0,0.0,70,0.00,CLR,,0.03,WeatherDisplay:10.37,2013-04-09 03:32:00,
2013-04-08 20:33:00,48.9,39.5,29.69,SSE,158,0.0,0.0,70,0.00,CLR,,0.03,WeatherDisplay:10.37,2013-04-09 03:33:00,
2013-04-08 20:34:00,48.9,39.5,29.69,SSE,158,0.0,0.0,70,0.00,CLR,,0.03,WeatherDisplay:10.37,2013-04-09 03:34:00,
2013-04-08 20:37:00,48.8,39.8,29.69,SSE,158,0.0,0.0,71,0.00,CLR,,0.03,WeatherDisplay:10.37,2013-04-09 03:37:00,
2013-04-08 20:39:00,48.8,39.8,29.69,SSE,158,0.0,0.0,71,0.00,CLR,,0.03,WeatherDisplay:10.37,2013-04-09 03:39:00,
2013-04-08 20:40:00,48.8,39.8,29.69,SSE,158,0.0,0.0,71,0.00,CLR,,0.03,WeatherDisplay:10.37,2013-04-09 03:40:00,
2013-04-08 20:41:00,48.6,39.6,29.69,SSE,158,0.0,0.0,71,0.00,CLR,,0.03,WeatherDisplay:10.37,2013-04-09 03:41:00,
2013-04-08 20:43:00,48.6,39.6,29.69,SSE,158,0.0,0.0,71,0.00,CLR,,0.03,WeatherDisplay:10.37,2013-04-09 03:43:00,
2013-04-08 20:44:00,48.6,39.6,29.69,SSE,158,0.0,0.0,71,0.00,CLR,,0.03,WeatherDisplay:10.37,2013-04-09 03:44:00,
2013-04-08 20:47:00,48.5,39.9,29.70,SSE,158,0.0,0.0,72,0.00,CLR,,0.03,WeatherDisplay:10.37,2013-04-09 03:47:00,
2013-04-08 20:48:00,48.5,39.9,29.70,SSE,158,0.0,0.0,72,0.00,CLR,,0.03,WeatherDisplay:10.37,2013-04-09 03:48:00,
2013-04-08 20:49:00,48.5,39.9,29.70,SSE,158,0.0,0.0,72,0.00,CLR,,0.03,WeatherDisplay:10.37,2013-04-09 03:49:00,
2013-04-08 20:50:00,48.3,39.7,29.70,SSE,158,0.0,0.0,72,0.00,CLR,,0.03,WeatherDisplay:10.37,2013-04-09 03:50:00,
2013-04-08 20:53:00,48.2,39.6,29.70,SSE,158,0.0,0.0,72,0.00,CLR,,0.03,WeatherDisplay:10.37,2013-04-09 03:53:00,
2013-04-08 20:55:00,48.2,39.6,29.70,SSE,158,0.0,0.0,72,0.00,CLR,,0.03,WeatherDisplay:10.37,2013-04-09 03:55:00,
2013-04-08 20:59:00,48.0,39.4,29.70,SSE,158,0.0,0.0,72,0.00,CLR,,0.03,WeatherDisplay:10.37,2013-04-09 03:59:00,
2013-04-08 21:00:00,48.0,39.8,29.70,SSE,158,0.0,0.0,73,0.00,CLR,,0.03,WeatherDisplay:10.37,2013-04-09 04:00:00,
2013-04-08 21:01:00,47.9,39.7,29.70,SSE,158,0.0,0.0,73,0.00,FEW,,0.03,WeatherDisplay:10.37,2013-04-09 04:01:00,
2013-04-08 21:05:00,47.7,39.5,29.70,SSE,158,0.0,0.0,73,0.00,FEW,,0.03,WeatherDisplay:10.37,2013-04-09 04:05:00,
2013-04-08 21:07:00,47.7,39.5,29.70,SSE,158,0.0,0.0,73,0.00,FEW,,0.03,WeatherDisplay:10.37,2013-04-09 04:07:00,
2013-04-08 21:08:00,47.7,39.8,29.70,SSE,158,0.0,0.0,74,0.00,FEW,,0.03,WeatherDisplay:10.37,2013-04-09 04:08:00,
2013-04-08 21:13:00,47.6,39.7,29.71,SSE,158,0.0,0.0,74,0.00,FEW,,0.03,WeatherDisplay:10.37,2013-04-09 04:13:00,
2013-04-08 21:14:00,47.4,39.5,29.71,SSE,158,0.0,0.0,74,0.00,FEW,,0.03,WeatherDisplay:10.37,2013-04-09 04:14:00,
2013-04-08 21:19:00,47.3,39.8,29.71,SSE,158,0.0,0.0,75,0.00,FEW,,0.03,WeatherDisplay:10.37,2013-04-09 04:19:00,
2013-04-08 21:20:00,47.3,39.4,29.71,SSE,158,0.0,0.0,74,0.00,FEW,,0.03,WeatherDisplay:10.37,2013-04-09 04:20:00,
2013-04-08 21:21:00,47.1,39.6,29.71,SSE,158,0.0,0.0,75,0.00,FEW,,0.03,WeatherDisplay:10.37,2013-04-09 04:21:00,
2013-04-08 21:25:00,47.0,39.5,29.71,SSE,158,0.0,0.0,75,0.00,FEW,,0.03,WeatherDisplay:10.37,2013-04-09 04:25:00,
2013-04-08 21:26:00,46.8,39.6,29.71,SSE,158,0.0,0.0,76,0.00,FEW,,0.03,WeatherDisplay:10.37,2013-04-09 04:26:00,
2013-04-08 21:30:00,46.7,39.6,29.71,SSE,158,0.0,0.0,76,0.00,FEW,,0.03,WeatherDisplay:10.37,2013-04-09 04:30:00,
2013-04-08 21:31:00,46.7,39.5,29.71,SSE,158,0.0,0.0,76,0.00,FEW,,0.03,WeatherDisplay:10.37,2013-04-09 04:31:00,
2013-04-08 21:32:00,46.5,39.3,29.71,SSE,158,0.0,0.0,76,0.00,FEW,,0.03,WeatherDisplay:10.37,2013-04-09 04:32:00,
2013-04-08 21:34:00,46.5,39.3,29.71,SSE,158,0.0,0.0,76,0.00,FEW,,0.03,WeatherDisplay:10.37,2013-04-09 04:34:00,
2013-04-08 21:36:00,46.4,39.2,29.72,SSE,158,0.0,0.0,76,0.00,FEW,,0.03,WeatherDisplay:10.37,2013-04-09 04:36:00,
2013-04-08 21:37:00,46.4,39.2,29.72,SSE,158,0.0,0.0,76,0.00,FEW,,0.03,WeatherDisplay:10.37,2013-04-09 04:37:00,
2013-04-08 21:40:00,46.2,39.4,29.72,SSE,158,0.0,0.0,77,0.00,FEW,,0.03,WeatherDisplay:10.37,2013-04-09 04:40:00,
2013-04-08 21:41:00,46.2,39.4,29.72,SSE,158,0.0,0.0,77,0.00,FEW,,0.03,WeatherDisplay:10.37,2013-04-09 04:41:00,
2013-04-08 21:42:00,46.1,39.3,29.72,SSE,158,0.0,0.0,77,0.00,FEW,,0.03,WeatherDisplay:10.37,2013-04-09 04:42:00,
2013-04-08 21:44:00,46.1,39.3,29.72,SSE,158,0.0,0.0,77,0.00,FEW,,0.03,WeatherDisplay:10.37,2013-04-09 04:44:00,
2013-04-08 21:45:00,46.1,39.3,29.72,SSE,158,0.0,0.0,77,0.00,FEW,,0.03,WeatherDisplay:10.37,2013-04-09 04:45:00,
2013-04-08 21:47:00,46.0,39.2,29.72,SSE,158,0.0,0.0,77,0.00,FEW,,0.03,WeatherDisplay:10.37,2013-04-09 04:47:00,
2013-04-08 21:49:00,45.8,39.3,29.73,SSE,158,0.0,0.0,78,0.00,FEW,,0.03,WeatherDisplay:10.37,2013-04-09 04:49:00,
2013-04-08 21:50:00,45.8,39.3,29.73,SSE,158,0.0,0.0,78,0.00,FEW,,0.03,WeatherDisplay:10.37,2013-04-09 04:50:00,
2013-04-08 21:51:00,45.8,39.0,29.73,SSE,158,0.0,0.0,77,0.00,FEW,,0.03,WeatherDisplay:10.37,2013-04-09 04:51:00,
2013-04-08 21:53:00,45.7,39.2,29.73,SSE,158,0.0,0.0,78,0.00,FEW,,0.03,WeatherDisplay:10.37,2013-04-09 04:53:00,
2013-04-08 21:56:00,45.7,39.2,29.73,SSE,158,0.0,0.0,78,0.00,FEW,,0.03,WeatherDisplay:10.37,2013-04-09 04:56:00,
2013-04-08 21:57:00,45.5,39.0,29.73,SSE,158,0.0,0.0,78,0.00,FEW,,0.03,WeatherDisplay:10.37,2013-04-09 04:57:00,
2013-04-08 21:58:00,45.5,39.0,29.73,SSE,158,0.0,0.0,78,0.00,FEW,,0.03,WeatherDisplay:10.37,2013-04-09 04:58:00,
2013-04-08 22:04:00,45.5,39.0,29.73,SSE,158,0.0,0.0,78,0.00,FEW,,0.03,WeatherDisplay:10.37,2013-04-09 05:04:00,
2013-04-08 22:05:00,45.5,39.0,29.73,SSE,158,0.0,0.0,78,0.00,FEW,,0.03,WeatherDisplay:10.37,2013-04-09 05:05:00,
2013-04-08 22:10:00,45.4,39.3,29.73,SSE,158,0.0,0.0,79,0.00,FEW,,0.03,WeatherDisplay:10.37,2013-04-09 05:10:00,
2013-04-08 22:11:00,45.4,39.3,29.73,SSE,158,0.0,0.0,79,0.00,FEW,,0.03,WeatherDisplay:10.37,2013-04-09 05:11:00,
2013-04-08 22:15:00,45.4,39.3,29.73,SSE,158,0.0,0.0,79,0.00,FEW,,0.03,WeatherDisplay:10.37,2013-04-09 05:15:00,
2013-04-08 22:16:00,45.4,39.3,29.73,SSE,158,0.0,0.0,79,0.00,FEW,,0.03,WeatherDisplay:10.37,2013-04-09 05:16:00,
2013-04-08 22:17:00,45.4,39.3,29.73,SSE,158,0.0,0.0,79,0.00,FEW,,0.03,WeatherDisplay:10.37,2013-04-09 05:17:00,
2013-04-08 22:20:00,45.4,39.3,29.73,SSE,158,0.0,0.0,79,0.00,FEW,,0.03,WeatherDisplay:10.37,2013-04-09 05:20:00,
2013-04-08 22:22:00,45.2,39.4,29.73,SSE,158,0.0,0.0,80,0.00,FEW,,0.03,WeatherDisplay:10.37,2013-04-09 05:22:00,
2013-04-08 22:25:00,45.2,39.4,29.73,SSE,158,0.0,0.0,80,0.00,FEW,,0.03,WeatherDisplay:10.37,2013-04-09 05:25:00,
2013-04-08 22:27:00,45.2,39.4,29.73,SSE,158,0.0,0.0,80,0.00,FEW,,0.03,WeatherDisplay:10.37,2013-04-09 05:27:00,
2013-04-08 22:28:00,45.1,39.3,29.73,SSE,158,0.0,0.0,80,0.00,FEW,,0.03,WeatherDisplay:10.37,2013-04-09 05:28:00,
2013-04-08 22:32:00,44.9,39.1,29.74,SSE,158,0.0,0.0,80,0.00,FEW,,0.03,WeatherDisplay:10.37,2013-04-09 05:32:00,
2013-04-08 22:33:00,44.9,39.1,29.74,SSE,158,0.0,0.0,80,0.00,FEW,,0.03,WeatherDisplay:10.37,2013-04-09 05:33:00,
2013-04-08 22:34:00,44.8,39.0,29.73,SSE,158,0.0,0.0,80,0.00,FEW,,0.03,WeatherDisplay:10.37,2013-04-09 05:34:00,
2013-04-08 22:35:00,44.8,39.0,29.73,SSE,158,0.0,0.0,80,0.00,FEW,,0.03,WeatherDisplay:10.37,2013-04-09 05:35:00,
2013-04-08 22:37:00,44.6,38.8,29.74,SSE,158,0.0,0.0,80,0.00,FEW,,0.03,WeatherDisplay:10.37,2013-04-09 05:37:00,
2013-04-08 22:39:00,44.6,38.8,29.74,SSE,158,0.0,0.0,80,0.00,FEW,,0.03,WeatherDisplay:10.37,2013-04-09 05:39:00,
2013-04-08 22:41:00,44.5,38.7,29.74,SSE,158,0.0,0.0,80,0.00,FEW,,0.03,WeatherDisplay:10.37,2013-04-09 05:41:00,
2013-04-08 22:42:00,44.5,38.7,29.74,SSE,158,0.0,0.0,80,0.00,FEW,,0.03,WeatherDisplay:10.37,2013-04-09 05:42:00,
2013-04-08 22:44:00,44.5,38.7,29.74,SSE,158,0.0,0.0,80,0.00,FEW,,0.03,WeatherDisplay:10.37,2013-04-09 05:44:00,
2013-04-08 22:45:00,44.5,38.7,29.74,SSE,158,0.0,0.0,80,0.00,FEW,,0.03,WeatherDisplay:10.37,2013-04-09 05:45:00,
2013-04-08 22:47:00,44.5,38.7,29.74,SSE,158,0.0,0.0,80,0.00,FEW,,0.03,WeatherDisplay:10.37,2013-04-09 05:47:00,
2013-04-08 22:50:00,44.5,38.7,29.74,SSE,158,0.0,0.0,80,0.00,FEW,,0.03,WeatherDisplay:10.37,2013-04-09 05:50:00,
2013-04-08 22:51:00,44.5,38.7,29.74,SSE,158,0.0,0.0,80,0.00,FEW,,0.03,WeatherDisplay:10.37,2013-04-09 05:51:00,
2013-04-08 22:52:00,44.5,38.7,29.74,SSE,158,0.0,0.0,80,0.00,FEW,,0.03,WeatherDisplay:10.37,2013-04-09 05:52:00,
2013-04-08 22:56:00,44.5,38.7,29.74,SSE,158,0.0,0.0,80,0.00,FEW,,0.03,WeatherDisplay:10.37,2013-04-09 05:56:00,
2013-04-08 22:57:00,44.5,38.7,29.74,SSE,158,0.0,0.0,80,0.00,FEW,,0.03,WeatherDisplay:10.37,2013-04-09 05:57:00,
2013-04-08 22:58:00,44.5,38.7,29.74,SSE,158,0.0,0.0,80,0.00,FEW,,0.03,WeatherDisplay:10.37,2013-04-09 05:58:00,
2013-04-08 22:59:00,44.5,38.7,29.74,SSE,158,0.0,0.0,80,0.00,FEW,,0.03,WeatherDisplay:10.37,2013-04-09 05:59:00,
2013-04-08 23:01:00,44.5,38.7,29.74,SSE,158,0.0,0.0,80,0.00,FEW,,0.03,WeatherDisplay:10.37,2013-04-09 06:01:00,
2013-04-08 23:02:00,44.5,38.7,29.74,SSE,158,0.0,0.0,80,0.00,FEW,,0.03,WeatherDisplay:10.37,2013-04-09 06:02:00,
2013-04-08 23:04:00,44.5,38.7,29.75,SSE,158,0.0,0.0,80,0.00,FEW,,0.03,WeatherDisplay:10.37,2013-04-09 06:04:00,
2013-04-08 23:06:00,44.3,38.2,29.75,SSE,158,0.0,0.0,79,0.00,FEW,,0.03,WeatherDisplay:10.37,2013-04-09 06:06:00,
2013-04-08 23:08:00,44.3,38.2,29.75,SSE,158,0.0,0.0,79,0.00,FEW,,0.03,WeatherDisplay:10.37,2013-04-09 06:08:00,
2013-04-08 23:09:00,44.3,38.2,29.75,SSE,158,0.0,0.0,79,0.00,FEW,,0.03,WeatherDisplay:10.37,2013-04-09 06:09:00,
2013-04-08 23:11:00,44.2,38.1,29.75,SSE,158,0.0,0.0,79,0.00,FEW,,0.03,WeatherDisplay:10.37,2013-04-09 06:11:00,
2013-04-08 23:14:00,44.2,38.1,29.75,SSE,158,0.0,0.0,79,0.00,FEW,,0.03,WeatherDisplay:10.37,2013-04-09 06:14:00,
2013-04-08 23:15:00,44.2,38.1,29.75,SSE,158,0.0,0.0,79,0.00,FEW,,0.03,WeatherDisplay:10.37,2013-04-09 06:15:00,
2013-04-08 23:17:00,44.1,38.0,29.75,SSE,158,0.0,0.0,79,0.00,FEW,,0.03,WeatherDisplay:10.37,2013-04-09 06:17:00,
2013-04-08 23:19:00,44.1,38.0,29.75,SSE,158,0.0,0.0,79,0.00,FEW,,0.03,WeatherDisplay:10.37,2013-04-09 06:19:00,
2013-04-08 23:20:00,44.1,38.0,29.75,SSE,158,0.0,0.0,79,0.00,FEW,,0.03,WeatherDisplay:10.37,2013-04-09 06:20:00,
2013-04-08 23:22:00,43.9,38.1,29.75,SSE,158,0.0,0.0,80,0.00,FEW,,0.03,WeatherDisplay:10.37,2013-04-09 06:22:00,
2013-04-08 23:25:00,43.9,37.8,29.75,SSE,158,0.0,0.0,79,0.00,FEW,,0.03,WeatherDisplay:10.37,2013-04-09 06:25:00,
2013-04-08 23:26:00,43.8,38.0,29.75,SSE,158,0.0,0.0,80,0.00,FEW,,0.03,WeatherDisplay:10.37,2013-04-09 06:26:00,
2013-04-08 23:27:00,43.8,38.0,29.75,SSE,158,0.0,0.0,80,0.00,FEW,,0.03,WeatherDisplay:10.37,2013-04-09 06:27:00,
2013-04-08 23:30:00,43.6,37.5,29.75,SSE,158,0.0,0.0,79,0.00,FEW,,0.03,WeatherDisplay:10.37,2013-04-09 06:30:00,
2013-04-08 23:33:00,43.5,37.7,29.75,SSE,158,0.0,0.0,80,0.00,FEW,,0.03,WeatherDisplay:10.37,2013-04-09 06:33:00,
2013-04-08 23:35:00,43.5,37.7,29.75,SSE,158,0.0,0.0,80,0.00,FEW,,0.03,WeatherDisplay:10.37,2013-04-09 06:35:00,
2013-04-08 23:36:00,43.5,37.7,29.75,SSE,158,0.0,0.0,80,0.00,FEW,,0.03,WeatherDisplay:10.37,2013-04-09 06:36:00,
2013-04-08 23:38:00,43.3,37.5,29.75,SSE,158,0.0,0.0,80,0.00,FEW,,0.03,WeatherDisplay:10.37,2013-04-09 06:38:00,
2013-04-08 23:40:00,43.3,37.5,29.75,SSE,158,0.0,0.0,80,0.00,FEW,,0.03,WeatherDisplay:10.37,2013-04-09 06:40:00,
2013-04-08 23:42:00,43.3,37.5,29.75,SSE,158,0.0,0.0,80,0.00,FEW,,0.03,WeatherDisplay:10.37,2013-04-09 06:42:00,
2013-04-08 23:44:00,43.3,37.5,29.75,SSE,158,0.0,0.0,80,0.00,FEW,,0.03,WeatherDisplay:10.37,2013-04-09 06:44:00,
2013-04-08 23:46:00,43.2,37.4,29.75,SSE,158,0.0,0.0,80,0.00,FEW,,0.03,WeatherDisplay:10.37,2013-04-09 06:46:00,
2013-04-08 23:48:00,43.2,37.4,29.75,SSE,158,0.0,0.0,80,0.00,FEW,,0.03,WeatherDisplay:10.37,2013-04-09 06:48:00,
2013-04-08 23:52:00,43.2,37.4,29.75,SSE,158,0.0,0.0,80,0.00,FEW,,0.03,WeatherDisplay:10.37,2013-04-09 06:52:00,
2013-04-08 23:53:00,43.2,37.4,29.75,SSE,158,0.0,0.0,80,0.00,FEW,,0.03,WeatherDisplay:10.37,2013-04-09 06:53:00,
2013-04-08 23:57:00,43.2,37.4,29.76,SSE,158,0.0,0.0,80,0.00,FEW,,0.03,WeatherDisplay:10.37,2013-04-09 06:57:00,